| time (UTC) | temp F | wind direction | speed MPH | gust MPH | rain 1hr in | rain 24hr in | rain mn in | humidity % | barometer mb |
| 20260510170935 | 58 | 152 | 7.0 | 11.0 | 0.00 | 0.06 | 0.06 | 23 | 1011.2 |
| 20260510170835 | 58 | 155 | 5.0 | 11.0 | 0.00 | 0.06 | 0.06 | 24 | 1011.3 |
| 20260510170759 | 58 | 134 | 5.0 | 11.0 | 0.00 | 0.06 | 0.06 | 19 | 1011.3 |
| 20260510170722 | 58 | 187 | 4.0 | 11.0 | 0.00 | 0.06 | 0.06 | 19 | 1011.3 |
| 20260510170524 | 58 | 159 | 6.0 | 11.0 | 0.00 | 0.06 | 0.06 | 10 | 1011.2 |
| 20260510170325 | 58 | 169 | 5.0 | 10.0 | 0.00 | 0.06 | 0.06 | 4 | 1011.2 |
| 20260510170227 | 58 | 183 | 4.0 | 8.0 | 0.00 | 0.06 | 0.06 | 1 | 1011.3 |
| 20260510170125 | 58 | 149 | 3.0 | 6.0 | 0.00 | 0.06 | 0.06 | 1 | 1011.3 |
| 20260510170048 | 57 | 119 | 3.0 | 7.0 | 0.00 | 0.06 | 0.06 | 9 | 1011.3 |
| 20260510165919 | 57 | 188 | 2.0 | 7.0 | 0.00 | 0.06 | 0.06 | 13 | 1011.3 |
| 20260510165833 | 57 | 157 | 1.0 | 7.0 | 0.00 | 0.06 | 0.06 | 13 | 1011.3 |
| 20260510165642 | 57 | 188 | 1.0 | 7.0 | 0.00 | 0.06 | 0.06 | 2 | 1011.3 |
| 20260510165557 | 57 | 232 | 1.0 | 7.0 | 0.00 | 0.06 | 0.06 | 2 | 1011.3 |
| 20260510165426 | 57 | 92 | 2.0 | 7.0 | 0.00 | 0.06 | 0.06 | 1 | 1011.4 |
| 20260510165328 | 57 | 258 | 3.0 | 7.0 | 0.00 | 0.06 | 0.06 | 1 | 1011.5 |
| 20260510165131 | 57 | 247 | 3.0 | 7.0 | 0.00 | 0.06 | 0.06 | 1 | 1011.4 |
| 20260510165055 | 57 | 215 | 3.0 | 7.0 | 0.00 | 0.06 | 0.06 | 1 | 1011.4 |
| 20260510164943 | 57 | 249 | 3.0 | 7.0 | 0.00 | 0.06 | 0.06 | 1 | 1011.4 |
| 20260510164905 | 57 | 235 | 2.0 | 6.0 | 0.00 | 0.06 | 0.06 | 1 | 1011.4 |
| 20260510164804 | 57 | 222 | 2.0 | 6.0 | 0.00 | 0.06 | 0.06 | 1 | 1011.4 |
| 20260510164705 | 57 | 144 | 4.0 | 6.0 | 0.00 | 0.06 | 0.06 | 1 | 1011.5 |
| 20260510164627 | 57 | 155 | 5.0 | 6.0 | 0.00 | 0.06 | 0.06 | 1 | 1011.4 |
| 20260510164431 | 57 | 180 | 2.0 | 5.0 | 0.00 | 0.06 | 0.06 | 1 | 1011.5 |
| 20260510164334 | 57 | 269 | 2.0 | 4.0 | 0.00 | 0.06 | 0.06 | 1 | 1011.5 |
| 20260510164237 | 57 | 345 | 2.0 | 4.0 | 0.01 | 0.06 | 0.06 | 1 | 1011.5 |
| 20260510164200 | 57 | 318 | 2.0 | 4.0 | 0.01 | 0.06 | 0.06 | 1 | 1011.5 |
| 20260510164123 | 57 | 360 | 2.0 | 4.0 | 0.01 | 0.06 | 0.06 | 1 | 1011.5 |
| 20260510163930 | 57 | 360 | 2.0 | 5.0 | 0.01 | 0.06 | 0.06 | 1 | 1011.5 |
| 20260510163854 | 57 | 360 | 2.0 | 5.0 | 0.01 | 0.06 | 0.06 | 1 | 1011.5 |
| 20260510163738 | 56 | 29 | 1.0 | 5.0 | 0.01 | 0.06 | 0.06 | 1 | 1011.5 |
| 20260510163639 | 56 | 350 | 1.0 | 5.0 | 0.01 | 0.06 | 0.06 | 1 | 1011.6 |
| 20260510163511 | 56 | 318 | 1.0 | 8.0 | 0.01 | 0.06 | 0.06 | 1 | 1011.5 |
| 20260510163425 | 56 | 32 | 1.0 | 8.0 | 0.01 | 0.06 | 0.06 | 1 | 1011.5 |
| 20260510163236 | 56 | 355 | 3.0 | 8.0 | 0.01 | 0.06 | 0.06 | 1 | 1011.5 |
| 20260510163131 | 55 | 355 | 2.0 | 8.0 | 0.01 | 0.06 | 0.06 | 1 | 1011.5 |
| 20260510163055 | 55 | 36 | 1.0 | 8.0 | 0.01 | 0.06 | 0.06 | 1 | 1011.5 |
| 20260510163004 | 55 | 16 | 2.0 | 8.0 | 0.01 | 0.06 | 0.06 | 1 | 1011.6 |
| 20260510162843 | 55 | 300 | 4.0 | 8.0 | 0.01 | 0.06 | 0.06 | 1 | 1011.6 |
| 20260510162738 | 55 | 305 | 4.0 | 8.0 | 0.01 | 0.06 | 0.06 | 1 | 1011.6 |
| 20260510162709 | 55 | 306 | 3.0 | 6.0 | 0.01 | 0.06 | 0.06 | 1 | 1011.6 |
| 20260510162520 | 54 | 68 | 1.0 | 5.0 | 0.01 | 0.06 | 0.06 | 1 | 1011.7 |
| 20260510162414 | 54 | 336 | 1.0 | 5.0 | 0.01 | 0.06 | 0.06 | 1 | 1011.6 |
| 20260510162222 | 54 | 46 | 1.0 | 6.0 | 0.01 | 0.06 | 0.06 | 1 | 1011.6 |
| 20260510162147 | 54 | 45 | 1.0 | 6.0 | 0.01 | 0.06 | 0.06 | 1 | 1011.6 |
| 20260510162042 | 54 | 29 | 2.0 | 6.0 | 0.01 | 0.06 | 0.06 | 1 | 1011.6 |
| 20260510161929 | 54 | 29 | 2.0 | 6.0 | 0.01 | 0.06 | 0.06 | 1 | 1011.6 |
| 20260510161853 | 54 | 43 | 2.0 | 6.0 | 0.01 | 0.06 | 0.06 | 1 | 1011.6 |
| 20260510161814 | 54 | 40 | 2.0 | 6.0 | 0.01 | 0.06 | 0.06 | 1 | 1011.6 |
| 20260510161638 | 54 | 44 | 3.0 | 6.0 | 0.01 | 0.06 | 0.06 | 1 | 1011.6 |
| 20260510161541 | 54 | 52 | 3.0 | 6.0 | 0.01 | 0.06 | 0.06 | 1 | 1011.5 |
| 20260510161424 | 54 | 67 | 3.0 | 6.0 | 0.01 | 0.06 | 0.06 | 1 | 1011.6 |
| 20260510161348 | 54 | 51 | 3.0 | 6.0 | 0.01 | 0.06 | 0.06 | 1 | 1011.6 |
| 20260510161223 | 54 | 29 | 3.0 | 5.0 | 0.01 | 0.06 | 0.06 | 1 | 1011.6 |
| 20260510161127 | 54 | 12 | 3.0 | 5.0 | 0.01 | 0.06 | 0.06 | 1 | 1011.6 |
| 20260510161054 | 54 | 23 | 3.0 | 5.0 | 0.01 | 0.06 | 0.06 | 1 | 1011.6 |
| 20260510160837 | 53 | 29 | 2.0 | 6.0 | 0.01 | 0.06 | 0.06 | 1 | 1011.6 |
| 20260510160737 | 53 | 31 | 2.0 | 6.0 | 0.01 | 0.06 | 0.06 | 1 | 1011.6 |
| 20260510160640 | 53 | 36 | 2.0 | 6.0 | 0.01 | 0.06 | 0.06 | 1 | 1011.6 |
| 20260510160544 | 53 | 11 | 2.0 | 6.0 | 0.01 | 0.06 | 0.06 | 1 | 1011.6 |
| 20260510160507 | 53 | 360 | 3.0 | 6.0 | 0.01 | 0.06 | 0.06 | 1 | 1011.6 |
| 20260510160411 | 53 | 13 | 3.0 | 6.0 | 0.01 | 0.06 | 0.06 | 1 | 1011.6 |
| 20260510160333 | 53 | 24 | 4.0 | 6.0 | 0.01 | 0.06 | 0.06 | 1 | 1011.5 |
| 20260510160136 | 53 | 338 | 3.0 | 4.0 | 0.01 | 0.06 | 0.06 | 1 | 1011.5 |
| 20260510160044 | 53 | 339 | 3.0 | 4.0 | 0.01 | 0.06 | 0.06 | 1 | 1011.5 |
| 20260510155927 | 53 | 5 | 3.0 | 4.0 | 0.01 | 0.06 | 0.06 | 1 | 1011.4 |
| 20260510155829 | 53 | 22 | 2.0 | 4.0 | 0.01 | 0.06 | 0.06 | 1 | 1011.4 |
| 20260510155732 | 53 | 21 | 2.0 | 4.0 | 0.01 | 0.06 | 0.06 | 1 | 1011.4 |
| 20260510155655 | 53 | 57 | 3.0 | 4.0 | 0.01 | 0.06 | 0.06 | 1 | 1011.4 |
| 20260510155617 | 53 | 57 | 3.0 | 4.0 | 0.01 | 0.06 | 0.06 | 1 | 1011.4 |
| 20260510155440 | 53 | 49 | 3.0 | 4.0 | 0.01 | 0.06 | 0.06 | 1 | 1011.4 |
| 20260510155343 | 53 | 46 | 2.0 | 4.0 | 0.01 | 0.06 | 0.06 | 1 | 1011.4 |
| 20260510155225 | 52 | 48 | 2.0 | 4.0 | 0.01 | 0.06 | 0.06 | 1 | 1011.5 |
| 20260510155151 | 52 | 38 | 2.0 | 4.0 | 0.01 | 0.06 | 0.06 | 1 | 1011.5 |
| 20260510155113 | 52 | 65 | 2.0 | 4.0 | 0.01 | 0.06 | 0.06 | 1 | 1011.6 |
| 20260510154959 | 52 | 41 | 2.0 | 4.0 | 0.01 | 0.06 | 0.06 | 1 | 1011.6 |
| 20260510154921 | 52 | 36 | 2.0 | 4.0 | 0.01 | 0.06 | 0.06 | 1 | 1011.6 |
| 20260510154731 | 52 | 5 | 2.0 | 4.0 | 0.01 | 0.06 | 0.06 | 1 | 1011.5 |
| 20260510154645 | 52 | 349 | 3.0 | 4.0 | 0.01 | 0.06 | 0.06 | 1 | 1011.5 |
| 20260510154516 | 52 | 9 | 2.0 | 3.0 | 0.01 | 0.06 | 0.06 | 1 | 1011.5 |
| 20260510154416 | 52 | 15 | 1.0 | 3.0 | 0.01 | 0.06 | 0.06 | 1 | 1011.6 |
| 20260510154300 | 52 | 22 | 2.0 | 3.0 | 0.00 | 0.05 | 0.05 | 1 | 1011.5 |
| 20260510154140 | 52 | 22 | 2.0 | 3.0 | 0.00 | 0.05 | 0.05 | 1 | 1011.5 |
| 20260510154104 | 52 | 22 | 3.0 | 3.0 | 0.00 | 0.05 | 0.05 | 1 | 1011.5 |
| 20260510154008 | 52 | 33 | 2.0 | 3.0 | 0.00 | 0.05 | 0.05 | 1 | 1011.5 |
| 20260510153935 | 52 | 36 | 1.0 | 3.0 | 0.00 | 0.05 | 0.05 | 1 | 1011.5 |
| 20260510153733 | 52 | 355 | 1.0 | 3.0 | 0.00 | 0.05 | 0.05 | 1 | 1011.6 |
| 20260510153627 | 52 | 342 | 0.0 | 3.0 | 0.00 | 0.05 | 0.05 | 1 | 1011.5 |
| 20260510153438 | 52 | 360 | 1.0 | 3.0 | 0.00 | 0.05 | 0.05 | 1 | 1011.4 |
| 20260510153336 | 52 | 360 | 2.0 | 3.0 | 0.00 | 0.05 | 0.05 | 1 | 1011.4 |
| 20260510153230 | 52 | 360 | 2.0 | 3.0 | 0.00 | 0.05 | 0.05 | 1 | 1011.4 |
| 20260510153204 | 52 | 350 | 1.0 | 3.0 | 0.00 | 0.05 | 0.05 | 1 | 1011.4 |
| 20260510153126 | 52 | 333 | 1.0 | 3.0 | 0.00 | 0.05 | 0.05 | 1 | 1011.5 |
| 20260510152929 | 52 | 304 | 0.0 | 4.0 | 0.00 | 0.05 | 0.05 | 1 | 1011.5 |
| 20260510152836 | 52 | 304 | 1.0 | 4.0 | 0.00 | 0.05 | 0.05 | 1 | 1011.5 |
| 20260510152740 | 52 | 304 | 1.0 | 5.0 | 0.00 | 0.05 | 0.05 | 1 | 1011.5 |
| 20260510152643 | 52 | 314 | 1.0 | 5.0 | 0.00 | 0.05 | 0.05 | 1 | 1011.5 |
| 20260510152540 | 52 | 314 | 1.0 | 5.0 | 0.00 | 0.05 | 0.05 | 1 | 1011.4 |
| 20260510152422 | 52 | 314 | 2.0 | 5.0 | 0.00 | 0.05 | 0.05 | 1 | 1011.5 |
| 20260510152345 | 53 | 314 | 2.0 | 5.0 | 0.00 | 0.05 | 0.05 | 1 | 1011.5 |
| 20260510152308 | 53 | 306 | 3.0 | 6.0 | 0.00 | 0.05 | 0.05 | 1 | 1011.5 |
| 20260510152115 | 53 | 312 | 2.0 | 6.0 | 0.00 | 0.05 | 0.05 | 1 | 1011.4 |
| 20260510152040 | 53 | 346 | 3.0 | 8.0 | 0.00 | 0.05 | 0.05 | 1 | 1011.4 |
| 20260510151827 | 53 | 330 | 2.0 | 8.0 | 0.00 | 0.05 | 0.05 | 1 | 1011.5 |
| 20260510151750 | 53 | 327 | 1.0 | 8.0 | 0.00 | 0.05 | 0.05 | 1 | 1011.5 |
| 20260510151633 | 53 | 327 | 3.0 | 8.0 | 0.00 | 0.05 | 0.05 | 1 | 1011.4 |
| 20260510151557 | 53 | 327 | 4.0 | 8.0 | 0.00 | 0.05 | 0.05 | 1 | 1011.4 |
| 20260510151458 | 53 | 325 | 3.0 | 9.0 | 0.00 | 0.05 | 0.05 | 1 | 1011.4 |
| 20260510151322 | 54 | 315 | 4.0 | 9.0 | 0.00 | 0.05 | 0.05 | 1 | 1011.4 |
| 20260510151238 | 54 | 346 | 4.0 | 9.0 | 0.00 | 0.05 | 0.05 | 1 | 1011.5 |
| 20260510151108 | 54 | 325 | 4.0 | 9.0 | 0.00 | 0.05 | 0.05 | 1 | 1011.5 |
| 20260510151035 | 54 | 331 | 4.0 | 9.0 | 0.00 | 0.05 | 0.05 | 1 | 1011.4 |
| 20260510150837 | 55 | 283 | 3.0 | 9.0 | 0.00 | 0.05 | 0.05 | 1 | 1011.3 |
| 20260510150759 | 55 | 295 | 2.0 | 12.0 | 0.00 | 0.05 | 0.05 | 1 | 1011.3 |
| 20260510150643 | 55 | 322 | 5.0 | 12.0 | 0.00 | 0.05 | 0.05 | 1 | 1011.3 |
| 20260510150606 | 55 | 317 | 6.0 | 12.0 | 0.00 | 0.05 | 0.05 | 1 | 1011.3 |
| 20260510150429 | 56 | 288 | 5.0 | 14.0 | 0.00 | 0.05 | 0.05 | 1 | 1011.3 |
| 20260510150352 | 56 | 301 | 4.0 | 13.0 | 0.00 | 0.05 | 0.05 | 1 | 1011.2 |
| 20260510150233 | 56 | 311 | 4.0 | 13.0 | 0.00 | 0.05 | 0.05 | 1 | 1011.1 |
| 20260510150156 | 56 | 274 | 4.0 | 13.0 | 0.00 | 0.05 | 0.05 | 1 | 1011.1 |
| 20260510150119 | 56 | 278 | 5.0 | 13.0 | 0.00 | 0.05 | 0.05 | 1 | 1011.0 |
| 20260510145927 | 56 | 215 | 8.0 | 16.0 | 0.00 | 0.05 | 0.05 | 1 | 1010.9 |
| 20260510145829 | 56 | 192 | 7.0 | 16.0 | 0.00 | 0.05 | 0.05 | 1 | 1010.8 |
| 20260510145733 | 56 | 165 | 8.0 | 16.0 | 0.00 | 0.05 | 0.05 | 1 | 1010.7 |
| 20260510145634 | 56 | 174 | 9.0 | 16.0 | 0.00 | 0.05 | 0.05 | 1 | 1010.7 |
| 20260510145505 | 56 | 194 | 8.0 | 20.0 | 0.00 | 0.05 | 0.05 | 1 | 1010.7 |
| 20260510145419 | 56 | 177 | 9.0 | 20.0 | 0.00 | 0.05 | 0.05 | 1 | 1010.7 |
| 20260510145248 | 57 | 182 | 8.0 | 20.0 | 0.00 | 0.05 | 0.05 | 1 | 1010.7 |
| 20260510145149 | 57 | 205 | 7.0 | 20.0 | 0.00 | 0.05 | 0.05 | 1 | 1010.7 |
| 20260510145053 | 57 | 138 | 7.0 | 20.0 | 0.00 | 0.05 | 0.05 | 1 | 1010.7 |
| 20260510145016 | 57 | 180 | 8.0 | 20.0 | 0.00 | 0.05 | 0.05 | 1 | 1010.6 |
| 20260510144832 | 57 | 150 | 10.0 | 20.0 | 0.00 | 0.05 | 0.05 | 1 | 1010.5 |
| 20260510144727 | 57 | 167 | 12.0 | 20.0 | 0.00 | 0.05 | 0.05 | 1 | 1010.6 |
| 20260510144650 | 57 | 169 | 13.0 | 20.0 | 0.00 | 0.05 | 0.05 | 1 | 1010.6 |
| 20260510144533 | 57 | 169 | 10.0 | 15.0 | 0.00 | 0.05 | 0.05 | 1 | 1010.6 |
| 20260510144456 | 57 | 186 | 11.0 | 15.0 | 0.00 | 0.05 | 0.05 | 1 | 1010.6 |
| 20260510144237 | 57 | 203 | 7.0 | 14.0 | 0.00 | 0.05 | 0.05 | 1 | 1010.5 |
| 20260510144159 | 57 | 175 | 7.0 | 14.0 | 0.00 | 0.05 | 0.05 | 1 | 1010.5 |
| 20260510144023 | 56 | 164 | 9.0 | 14.0 | 0.00 | 0.05 | 0.05 | 1 | 1010.5 |
| 20260510143943 | 56 | 159 | 9.0 | 14.0 | 0.00 | 0.05 | 0.05 | 1 | 1010.5 |
| 20260510143845 | 56 | 162 | 8.0 | 14.0 | 0.00 | 0.05 | 0.05 | 1 | 1010.5 |
| 20260510143749 | 56 | 150 | 9.0 | 14.0 | 0.00 | 0.05 | 0.05 | 1 | 1010.6 |
| 20260510143711 | 56 | 171 | 10.0 | 14.0 | 0.00 | 0.05 | 0.05 | 1 | 1010.6 |
| 20260510143543 | 56 | 200 | 9.0 | 13.0 | 0.00 | 0.05 | 0.05 | 1 | 1010.5 |
| 20260510143436 | 56 | 192 | 9.0 | 13.0 | 0.00 | 0.05 | 0.05 | 1 | 1010.4 |
| 20260510143308 | 56 | 152 | 5.0 | 12.0 | 0.00 | 0.05 | 0.05 | 1 | 1010.5 |
| 20260510143209 | 55 | 185 | 5.0 | 12.0 | 0.00 | 0.05 | 0.05 | 1 | 1010.5 |
| 20260510143131 | 55 | 179 | 7.0 | 12.0 | 0.00 | 0.05 | 0.05 | 1 | 1010.5 |
| 20260510143015 | 55 | 188 | 7.0 | 12.0 | 0.00 | 0.05 | 0.05 | 1 | 1010.4 |
| 20260510142916 | 55 | 158 | 7.0 | 12.0 | 0.00 | 0.05 | 0.05 | 1 | 1010.5 |
| 20260510142736 | 55 | 209 | 6.0 | 12.0 | 0.00 | 0.05 | 0.05 | 1 | 1010.4 |
| 20260510142632 | 55 | 177 | 7.0 | 12.0 | 0.00 | 0.05 | 0.05 | 1 | 1010.4 |
| 20260510142501 | 55 | 170 | 6.0 | 12.0 | 0.00 | 0.05 | 0.05 | 1 | 1010.4 |
| 20260510142404 | 55 | 186 | 7.0 | 14.0 | 0.00 | 0.05 | 0.05 | 1 | 1010.4 |
| 20260510142316 | 55 | 148 | 9.0 | 18.0 | 0.00 | 0.05 | 0.05 | 1 | 1010.4 |
| 20260510142128 | 55 | 143 | 8.0 | 18.0 | 0.00 | 0.05 | 0.05 | 1 | 1010.2 |
| 20260510142023 | 55 | 190 | 8.0 | 18.0 | 0.00 | 0.05 | 0.05 | 1 | 1010.4 |
| 20260510141946 | 55 | 144 | 8.0 | 18.0 | 0.00 | 0.05 | 0.05 | 1 | 1010.4 |
| 20260510141842 | 55 | 159 | 9.0 | 18.0 | 0.00 | 0.05 | 0.05 | 1 | 1010.4 |
| 20260510141743 | 55 | 139 | 11.0 | 18.0 | 0.00 | 0.05 | 0.05 | 1 | 1010.5 |
| 20260510141651 | 55 | 178 | 9.0 | 18.0 | 0.00 | 0.05 | 0.05 | 1 | 1010.5 |
| 20260510141553 | 55 | 165 | 9.0 | 18.0 | 0.00 | 0.05 | 0.05 | 1 | 1010.5 |
| 20260510141516 | 55 | 181 | 8.0 | 18.0 | 0.00 | 0.05 | 0.05 | 1 | 1010.5 |
| 20260510141329 | 55 | 167 | 7.0 | 12.0 | 0.00 | 0.05 | 0.05 | 1 | 1010.6 |
| 20260510141252 | 55 | 174 | 6.0 | 12.0 | 0.00 | 0.05 | 0.05 | 1 | 1010.6 |
| 20260510141156 | 55 | 138 | 6.0 | 17.0 | 0.00 | 0.05 | 0.05 | 1 | 1010.5 |
| 20260510141119 | 55 | 192 | 7.0 | 17.0 | 0.00 | 0.05 | 0.05 | 1 | 1010.5 |
| 20260510140923 | 55 | 161 | 7.0 | 17.0 | 0.00 | 0.05 | 0.05 | 1 | 1010.5 |
| 20260510140826 | 55 | 213 | 8.0 | 17.0 | 0.00 | 0.05 | 0.05 | 1 | 1010.5 |
| 20260510140725 | 56 | 153 | 9.0 | 17.0 | 0.00 | 0.05 | 0.05 | 1 | 1010.4 |
| 20260510140646 | 56 | 144 | 7.0 | 17.0 | 0.00 | 0.05 | 0.05 | 1 | 1010.4 |
| 20260510140428 | 56 | 163 | 9.0 | 17.0 | 0.00 | 0.05 | 0.05 | 1 | 1010.5 |
| 20260510140331 | 56 | 173 | 9.0 | 17.0 | 0.00 | 0.05 | 0.05 | 1 | 1010.4 |
| 20260510140233 | 56 | 157 | 9.0 | 20.0 | 0.00 | 0.05 | 0.05 | 1 | 1010.5 |
| 20260510140156 | 56 | 173 | 10.0 | 20.0 | 0.00 | 0.05 | 0.05 | 1 | 1010.5 |
| 20260510140119 | 56 | 155 | 9.0 | 20.0 | 0.00 | 0.05 | 0.05 | 1 | 1010.5 |
| 20260510140002 | 56 | 171 | 8.0 | 20.0 | 0.00 | 0.05 | 0.05 | 1 | 1010.4 |
| 20260510135924 | 56 | 157 | 8.0 | 20.0 | 0.00 | 0.05 | 0.05 | 1 | 1010.4 |
| 20260510135729 | 56 | 188 | 4.0 | 20.0 | 0.00 | 0.05 | 0.05 | 1 | 1010.4 |
| 20260510135636 | 56 | 217 | 7.0 | 20.0 | 0.00 | 0.05 | 0.05 | 1 | 1010.3 |
| 20260510135538 | 56 | 188 | 11.0 | 20.0 | 0.00 | 0.05 | 0.05 | 1 | 1010.3 |
| 20260510135444 | 56 | 154 | 11.0 | 20.0 | 0.00 | 0.05 | 0.05 | 1 | 1010.3 |
| 20260510135358 | 56 | 168 | 11.0 | 18.0 | 0.00 | 0.05 | 0.05 | 1 | 1010.3 |
| 20260510135207 | 55 | 167 | 10.0 | 18.0 | 0.00 | 0.05 | 0.05 | 1 | 1010.3 |
| 20260510135130 | 56 | 131 | 10.0 | 18.0 | 0.00 | 0.05 | 0.05 | 1 | 1010.2 |
| 20260510134932 | 56 | 200 | 7.0 | 14.0 | 0.00 | 0.05 | 0.05 | 1 | 1010.2 |
| 20260510134835 | 55 | 153 | 6.0 | 14.0 | 0.00 | 0.05 | 0.05 | 1 | 1010.2 |
| 20260510134738 | 55 | 125 | 8.0 | 15.0 | 0.00 | 0.05 | 0.05 | 1 | 1010.2 |
| 20260510134705 | 55 | 153 | 9.0 | 14.0 | 0.00 | 0.05 | 0.05 | 1 | 1010.2 |
| 20260510134626 | 55 | 172 | 10.0 | 14.0 | 0.00 | 0.05 | 0.05 | 1 | 1010.3 |
| 20260510134430 | 56 | 200 | 8.0 | 17.0 | 0.00 | 0.05 | 0.05 | 1 | 1010.3 |
| 20260510134354 | 56 | 163 | 7.0 | 18.0 | 0.00 | 0.05 | 0.05 | 1 | 1010.3 |
| 20260510134238 | 56 | 222 | 9.0 | 18.0 | 0.00 | 0.05 | 0.05 | 1 | 1010.2 |
| 20260510134201 | 56 | 156 | 9.0 | 18.0 | 0.00 | 0.05 | 0.05 | 1 | 1010.2 |
| 20260510134115 | 56 | 150 | 9.0 | 18.0 | 0.00 | 0.05 | 0.05 | 1 | 1010.3 |
| 20260510133936 | 56 | 168 | 6.0 | 18.0 | 0.00 | 0.05 | 0.05 | 1 | 1010.2 |
| 20260510133853 | 56 | 184 | 8.0 | 18.0 | 0.00 | 0.05 | 0.05 | 1 | 1010.2 |
| 20260510133815 | 56 | 196 | 9.0 | 18.0 | 0.00 | 0.05 | 0.05 | 1 | 1010.2 |
| 20260510133631 | 56 | 177 | 11.0 | 18.0 | 0.00 | 0.05 | 0.05 | 1 | 1010.2 |
| 20260510133526 | 56 | 154 | 11.0 | 17.0 | 0.00 | 0.05 | 0.05 | 1 | 1010.1 |
| 20260510133450 | 56 | 161 | 10.0 | 17.0 | 0.00 | 0.05 | 0.05 | 1 | 1010.1 |
| 20260510133354 | 56 | 163 | 7.0 | 17.0 | 0.00 | 0.05 | 0.05 | 1 | 1010.1 |
| 20260510133235 | 55 | 155 | 6.0 | 16.0 | 0.00 | 0.05 | 0.05 | 1 | 1010.0 |
| 20260510133138 | 55 | 194 | 7.0 | 16.0 | 0.00 | 0.05 | 0.05 | 1 | 1010.1 |
| 20260510133101 | 55 | 93 | 6.0 | 16.0 | 0.00 | 0.05 | 0.05 | 1 | 1010.1 |
| 20260510133024 | 55 | 234 | 5.0 | 18.0 | 0.00 | 0.05 | 0.05 | 1 | 1010.1 |
| 20260510132826 | 55 | 148 | 7.0 | 18.0 | 0.00 | 0.05 | 0.05 | 1 | 1010.1 |
| 20260510132753 | 55 | 142 | 7.0 | 18.0 | 0.00 | 0.05 | 0.05 | 1 | 1010.1 |
| 20260510132637 | 55 | 220 | 11.0 | 18.0 | 0.00 | 0.05 | 0.05 | 1 | 1009.9 |
| 20260510132557 | 55 | 150 | 13.0 | 18.0 | 0.00 | 0.05 | 0.05 | 1 | 1009.9 |
| 20260510132500 | 55 | 152 | 11.0 | 18.0 | 0.00 | 0.05 | 0.05 | 1 | 1009.9 |
| 20260510132345 | 55 | 162 | 10.0 | 18.0 | 0.00 | 0.05 | 0.05 | 1 | 1009.9 |
| 20260510132256 | 55 | 192 | 11.0 | 18.0 | 0.00 | 0.05 | 0.05 | 1 | 1009.9 |
| 20260510132138 | 55 | 148 | 10.0 | 15.0 | 0.00 | 0.05 | 0.05 | 1 | 1009.8 |
| 20260510132040 | 55 | 189 | 10.0 | 15.0 | 0.00 | 0.05 | 0.05 | 1 | 1009.8 |
| 20260510131923 | 55 | 186 | 7.0 | 15.0 | 0.00 | 0.05 | 0.05 | 1 | 1009.8 |
| 20260510131845 | 54 | 192 | 7.0 | 15.0 | 0.00 | 0.05 | 0.05 | 1 | 1009.8 |
| 20260510131658 | 54 | 148 | 8.0 | 15.0 | 0.00 | 0.05 | 0.05 | 1 | 1009.8 |
| 20260510131601 | 54 | 213 | 9.0 | 15.0 | 0.00 | 0.05 | 0.05 | 1 | 1009.8 |
| 20260510131423 | 54 | 140 | 8.0 | 15.0 | 0.00 | 0.05 | 0.05 | 1 | 1009.8 |
| 20260510131327 | 54 | 186 | 7.0 | 13.0 | 0.00 | 0.05 | 0.05 | 1 | 1009.8 |
| 20260510131249 | 54 | 163 | 8.0 | 12.0 | 0.00 | 0.05 | 0.05 | 1 | 1009.8 |
| 20260510131123 | 54 | 172 | 6.0 | 12.0 | 0.00 | 0.05 | 0.05 | 1 | 1009.9 |
| 20260510131047 | 54 | 179 | 6.0 | 12.0 | 0.00 | 0.05 | 0.05 | 1 | 1009.9 |
| 20260510131001 | 54 | 138 | 6.0 | 12.0 | 0.00 | 0.05 | 0.05 | 1 | 1009.9 |
| 20260510130848 | 54 | 159 | 6.0 | 12.0 | 0.00 | 0.05 | 0.05 | 1 | 1009.9 |
| 20260510130723 | 54 | 170 | 8.0 | 12.0 | 0.00 | 0.05 | 0.05 | 1 | 1009.9 |
| 20260510130638 | 54 | 150 | 8.0 | 12.0 | 0.00 | 0.05 | 0.05 | 1 | 1010.0 |
| 20260510130541 | 54 | 142 | 7.0 | 16.0 | 0.00 | 0.05 | 0.05 | 1 | 1010.1 |
| 20260510130424 | 54 | 164 | 5.0 | 16.0 | 0.00 | 0.05 | 0.05 | 1 | 1010.1 |
| 20260510130347 | 54 | 184 | 5.0 | 16.0 | 0.00 | 0.05 | 0.05 | 1 | 1010.1 |
| 20260510130241 | 54 | 169 | 7.0 | 16.0 | 0.00 | 0.05 | 0.05 | 1 | 1010.1 |
| 20260510130128 | 54 | 182 | 9.0 | 16.0 | 0.00 | 0.05 | 0.05 | 1 | 1010.1 |
| 20260510130049 | 54 | 169 | 9.0 | 16.0 | 0.00 | 0.05 | 0.05 | 1 | 1010.0 |
| 20260510125833 | 54 | 159 | 8.0 | 16.0 | 0.00 | 0.05 | 0.05 | 1 | 1010.0 |
| 20260510125735 | 54 | 164 | 9.0 | 16.0 | 0.00 | 0.05 | 0.05 | 1 | 1010.0 |
| 20260510125640 | 54 | 186 | 8.0 | 15.0 | 0.00 | 0.05 | 0.05 | 1 | 1010.0 |
| 20260510125540 | 54 | 133 | 8.0 | 15.0 | 0.00 | 0.05 | 0.05 | 1 | 1010.0 |
| 20260510125424 | 54 | 169 | 7.0 | 17.0 | 0.00 | 0.05 | 0.05 | 1 | 1009.9 |
| 20260510125325 | 54 | 126 | 6.0 | 12.0 | 0.00 | 0.05 | 0.05 | 1 | 1009.9 |
| 20260510125248 | 54 | 179 | 7.0 | 13.0 | 0.00 | 0.05 | 0.05 | 1 | 1009.9 |
| 20260510125156 | 54 | 201 | 6.0 | 12.0 | 0.00 | 0.05 | 0.05 | 1 | 1009.9 |
| 20260510125118 | 54 | 165 | 7.0 | 12.0 | 0.00 | 0.05 | 0.05 | 1 | 1010.0 |
| 20260510124924 | 54 | 173 | 8.0 | 14.0 | 0.00 | 0.05 | 0.05 | 1 | 1009.8 |
| 20260510124825 | 54 | 190 | 9.0 | 12.0 | 0.00 | 0.05 | 0.05 | 1 | 1009.8 |
| 20260510124729 | 54 | 209 | 8.0 | 15.0 | 0.00 | 0.05 | 0.05 | 1 | 1009.8 |
| 20260510124651 | 54 | 171 | 6.0 | 15.0 | 0.00 | 0.05 | 0.05 | 1 | 1009.8 |
| 20260510124434 | 54 | 139 | 8.0 | 15.0 | 0.00 | 0.05 | 0.05 | 1 | 1009.7 |
| 20260510124337 | 54 | 152 | 8.0 | 15.0 | 0.00 | 0.05 | 0.05 | 1 | 1009.6 |
| 20260510124240 | 54 | 185 | 9.0 | 15.0 | 0.00 | 0.05 | 0.05 | 1 | 1009.7 |
| 20260510124206 | 54 | 122 | 10.0 | 15.0 | 0.00 | 0.05 | 0.05 | 1 | 1009.7 |
| 20260510124129 | 54 | 143 | 10.0 | 16.0 | 0.00 | 0.05 | 0.05 | 1 | 1009.8 |
| 20260510123934 | 54 | 143 | 7.0 | 13.0 | 0.00 | 0.05 | 0.05 | 1 | 1009.7 |
| 20260510123838 | 54 | 187 | 7.0 | 13.0 | 0.00 | 0.05 | 0.05 | 1 | 1009.7 |
| 20260510123742 | 54 | 182 | 7.0 | 13.0 | 0.00 | 0.05 | 0.05 | 1 | 1009.7 |
| 20260510123643 | 54 | 134 | 6.0 | 13.0 | 0.00 | 0.05 | 0.05 | 1 | 1009.7 |
| 20260510123427 | 54 | 135 | 5.0 | 15.0 | 0.00 | 0.05 | 0.05 | 1 | 1009.6 |
| 20260510123331 | 54 | 170 | 6.0 | 15.0 | 0.00 | 0.05 | 0.05 | 1 | 1009.6 |
| 20260510123218 | 54 | 168 | 8.0 | 15.0 | 0.00 | 0.05 | 0.05 | 1 | 1009.6 |
| 20260510123151 | 54 | 131 | 9.0 | 15.0 | 0.00 | 0.05 | 0.05 | 1 | 1009.6 |
| 20260510122932 | 54 | 144 | 7.0 | 15.0 | 0.00 | 0.05 | 0.05 | 1 | 1009.6 |
| 20260510122856 | 54 | 187 | 7.0 | 15.0 | 0.00 | 0.05 | 0.05 | 1 | 1009.6 |
| 20260510122739 | 54 | 162 | 8.0 | 15.0 | 0.00 | 0.05 | 0.05 | 1 | 1009.6 |
| 20260510122615 | 54 | 177 | 7.0 | 14.0 | 0.00 | 0.05 | 0.05 | 1 | 1009.7 |
| 20260510122546 | 54 | 170 | 7.0 | 14.0 | 0.00 | 0.05 | 0.05 | 1 | 1009.7 |
| 20260510122450 | 54 | 161 | 7.0 | 14.0 | 0.00 | 0.05 | 0.05 | 1 | 1009.7 |
| 20260510122329 | 54 | 140 | 9.0 | 14.0 | 0.00 | 0.05 | 0.05 | 1 | 1009.7 |
| 20260510122232 | 54 | 172 | 9.0 | 14.0 | 0.00 | 0.05 | 0.05 | 1 | 1009.8 |
| 20260510122156 | 54 | 124 | 9.0 | 14.0 | 0.00 | 0.05 | 0.05 | 1 | 1009.8 |
| 20260510122117 | 54 | 159 | 7.0 | 14.0 | 0.00 | 0.05 | 0.05 | 1 | 1009.7 |
| 20260510122020 | 54 | 169 | 5.0 | 14.0 | 0.00 | 0.05 | 0.05 | 1 | 1009.8 |
| 20260510121922 | 54 | 178 | 6.0 | 14.0 | 0.00 | 0.05 | 0.05 | 1 | 1009.9 |
| 20260510121726 | 54 | 127 | 7.0 | 14.0 | 0.00 | 0.05 | 0.05 | 1 | 1009.9 |
| 20260510121629 | 54 | 163 | 5.0 | 14.0 | 0.00 | 0.05 | 0.05 | 1 | 1010.0 |
| 20260510121534 | 54 | 154 | 4.0 | 14.0 | 0.00 | 0.05 | 0.05 | 1 | 1010.1 |
| 20260510121440 | 54 | 174 | 5.0 | 14.0 | 0.00 | 0.05 | 0.05 | 1 | 1010.1 |
| 20260510121353 | 54 | 111 | 5.0 | 14.0 | 0.00 | 0.05 | 0.05 | 1 | 1010.1 |
| 20260510121306 | 54 | 164 | 7.0 | 14.0 | 0.00 | 0.05 | 0.05 | 1 | 1010.1 |
| 20260510121229 | 54 | 144 | 8.0 | 14.0 | 0.00 | 0.05 | 0.05 | 1 | 1010.1 |
| 20260510121100 | 54 | 171 | 6.0 | 12.0 | 0.00 | 0.05 | 0.05 | 1 | 1010.0 |
| 20260510120955 | 55 | 155 | 6.0 | 12.0 | 0.00 | 0.05 | 0.05 | 1 | 1010.0 |
| 20260510120744 | 55 | 142 | 8.0 | 15.0 | 0.00 | 0.05 | 0.05 | 1 | 1010.0 |
| 20260510120638 | 55 | 167 | 8.0 | 15.0 | 0.00 | 0.05 | 0.05 | 1 | 1010.0 |
| 20260510120509 | 55 | 186 | 7.0 | 15.0 | 0.00 | 0.05 | 0.05 | 1 | 1009.9 |
| 20260510120432 | 55 | 211 | 8.0 | 15.0 | 0.00 | 0.05 | 0.05 | 1 | 1010.0 |
| 20260510120235 | 55 | 152 | 6.0 | 15.0 | 0.00 | 0.05 | 0.05 | 1 | 1009.9 |
| 20260510120143 | 54 | 147 | 8.0 | 15.0 | 0.00 | 0.05 | 0.05 | 1 | 1009.9 |
| 20260510120027 | 54 | 145 | 8.0 | 15.0 | 0.00 | 0.05 | 0.05 | 1 | 1009.9 |
| 20260510120000 | 54 | 168 | 7.0 | 15.0 | 0.00 | 0.05 | 0.05 | 1 | 1009.9 |
| 20260510115822 | 54 | 180 | 6.0 | 15.0 | 0.00 | 0.05 | 0.05 | 1 | 1009.9 |
| 20260510115745 | 54 | 157 | 6.0 | 15.0 | 0.00 | 0.05 | 0.05 | 1 | 1009.9 |
| 20260510115637 | 54 | 184 | 7.0 | 15.0 | 0.00 | 0.05 | 0.05 | 1 | 1009.9 |
| 20260510115601 | 54 | 179 | 8.0 | 15.0 | 0.00 | 0.05 | 0.05 | 1 | 1009.9 |
| 20260510115506 | 54 | 189 | 8.0 | 15.0 | 0.00 | 0.05 | 0.05 | 1 | 1009.8 |
| 20260510115428 | 54 | 140 | 9.0 | 15.0 | 0.00 | 0.05 | 0.05 | 1 | 1009.8 |
| 20260510115235 | 54 | 167 | 9.0 | 15.0 | 0.00 | 0.05 | 0.05 | 1 | 1009.7 |
| 20260510115138 | 54 | 139 | 10.0 | 15.0 | 0.00 | 0.05 | 0.05 | 1 | 1009.7 |
| 20260510114945 | 54 | 175 | 9.0 | 15.0 | 0.00 | 0.05 | 0.05 | 1 | 1009.6 |
| 20260510114727 | 54 | 114 | 8.0 | 15.0 | 0.00 | 0.05 | 0.05 | 1 | 1009.6 |
| 20260510114650 | 54 | 151 | 8.0 | 15.0 | 0.00 | 0.05 | 0.05 | 1 | 1009.6 |
| 20260510114534 | 54 | 160 | 6.0 | 11.0 | 0.00 | 0.05 | 0.05 | 1 | 1009.7 |
| 20260510114442 | 54 | 160 | 6.0 | 12.0 | 0.00 | 0.05 | 0.05 | 1 | 1009.7 |
| 20260510114356 | 54 | 182 | 6.0 | 11.0 | 0.00 | 0.05 | 0.05 | 1 | 1009.7 |
| 20260510114227 | 54 | 167 | 7.0 | 13.0 | 0.00 | 0.05 | 0.05 | 1 | 1009.7 |
| 20260510114129 | 54 | 202 | 7.0 | 13.0 | 0.00 | 0.05 | 0.05 | 1 | 1009.7 |
| 20260510113932 | 54 | 169 | 6.0 | 13.0 | 0.00 | 0.05 | 0.05 | 1 | 1009.7 |
| 20260510113856 | 54 | 137 | 6.0 | 13.0 | 0.00 | 0.05 | 0.05 | 1 | 1009.7 |
| 20260510113800 | 53 | 124 | 6.0 | 13.0 | 0.00 | 0.05 | 0.05 | 1 | 1009.7 |
| 20260510113642 | 53 | 143 | 6.0 | 13.0 | 0.00 | 0.05 | 0.05 | 1 | 1009.7 |
| 20260510113547 | 53 | 149 | 8.0 | 13.0 | 0.00 | 0.05 | 0.05 | 1 | 1009.8 |
| 20260510113511 | 53 | 159 | 8.0 | 13.0 | 0.00 | 0.05 | 0.05 | 1 | 1009.7 |
| 20260510113442 | 53 | 177 | 8.0 | 13.0 | 0.00 | 0.05 | 0.05 | 1 | 1009.7 |
| 20260510113317 | 53 | 148 | 5.0 | 11.0 | 0.00 | 0.05 | 0.05 | 1 | 1009.7 |
| 20260510113221 | 53 | 144 | 5.0 | 11.0 | 0.00 | 0.05 | 0.05 | 1 | 1009.7 |
| 20260510113142 | 53 | 163 | 6.0 | 11.0 | 0.00 | 0.05 | 0.05 | 1 | 1009.7 |
| 20260510113014 | 53 | 151 | 7.0 | 12.0 | 0.00 | 0.05 | 0.05 | 1 | 1009.6 |
| 20260510112930 | 53 | 178 | 7.0 | 10.0 | 0.00 | 0.05 | 0.05 | 1 | 1009.6 |
| 20260510112801 | 53 | 145 | 7.0 | 11.0 | 0.00 | 0.05 | 0.05 | 1 | 1009.5 |
| 20260510112635 | 53 | 167 | 6.0 | 16.0 | 0.00 | 0.05 | 0.05 | 1 | 1009.4 |
| 20260510112559 | 53 | 129 | 5.0 | 16.0 | 0.00 | 0.05 | 0.05 | 1 | 1009.4 |
| 20260510112520 | 53 | 179 | 6.0 | 16.0 | 0.00 | 0.05 | 0.05 | 1 | 1009.4 |
| 20260510112434 | 53 | 162 | 6.0 | 16.0 | 0.00 | 0.05 | 0.05 | 1 | 1009.5 |
| 20260510112306 | 53 | 126 | 6.0 | 16.0 | 0.00 | 0.05 | 0.05 | 1 | 1009.4 |
| 20260510112207 | 53 | 142 | 8.0 | 16.0 | 0.00 | 0.05 | 0.05 | 1 | 1009.4 |
| 20260510112112 | 53 | 148 | 8.0 | 16.0 | 0.00 | 0.05 | 0.05 | 1 | 1009.5 |
| 20260510112016 | 53 | 103 | 7.0 | 16.0 | 0.00 | 0.05 | 0.05 | 1 | 1009.4 |
| 20260510111939 | 53 | 156 | 7.0 | 16.0 | 0.00 | 0.05 | 0.05 | 1 | 1009.4 |
| 20260510111808 | 53 | 178 | 8.0 | 14.0 | 0.00 | 0.05 | 0.05 | 1 | 1009.4 |
| 20260510111722 | 53 | 140 | 8.0 | 14.0 | 0.00 | 0.05 | 0.05 | 1 | 1009.4 |
| 20260510111553 | 53 | 150 | 4.0 | 9.0 | 0.00 | 0.05 | 0.05 | 1 | 1009.4 |
| 20260510111456 | 53 | 145 | 5.0 | 9.0 | 0.00 | 0.05 | 0.05 | 1 | 1009.4 |
| 20260510111339 | 53 | 119 | 5.0 | 11.0 | 0.00 | 0.05 | 0.05 | 1 | 1009.5 |
| 20260510111243 | 53 | 149 | 4.0 | 11.0 | 0.00 | 0.05 | 0.05 | 1 | 1009.5 |
| 20260510111136 | 53 | 168 | 6.0 | 11.0 | 0.00 | 0.05 | 0.05 | 1 | 1009.5 |
| 20260510111024 | 53 | 130 | 5.0 | 11.0 | 0.00 | 0.05 | 0.05 | 1 | 1009.6 |
| 20260510110947 | 53 | 161 | 5.0 | 11.0 | 0.00 | 0.05 | 0.05 | 1 | 1009.6 |
| 20260510110910 | 53 | 140 | 3.0 | 11.0 | 0.00 | 0.05 | 0.05 | 1 | 1009.6 |
| 20260510110752 | 53 | 157 | 5.0 | 11.0 | 0.00 | 0.05 | 0.05 | 1 | 1009.5 |
| 20260510110654 | 53 | 157 | 6.0 | 11.0 | 0.00 | 0.05 | 0.05 | 1 | 1009.5 |
| 20260510110617 | 53 | 154 | 6.0 | 11.0 | 0.00 | 0.05 | 0.05 | 1 | 1009.5 |
| 20260510110440 | 53 | 132 | 6.0 | 11.0 | 0.00 | 0.05 | 0.05 | 1 | 1009.5 |
| 20260510110342 | 53 | 178 | 7.0 | 12.0 | 0.00 | 0.05 | 0.05 | 1 | 1009.5 |
| 20260510110226 | 53 | 140 | 6.0 | 11.0 | 0.00 | 0.05 | 0.05 | 1 | 1009.5 |
| 20260510110146 | 53 | 195 | 5.0 | 10.0 | 0.00 | 0.05 | 0.05 | 1 | 1009.5 |
| 20260510110020 | 53 | 188 | 6.0 | 9.0 | 0.00 | 0.05 | 0.05 | 1 | 1009.4 |
| 20260510105913 | 53 | 165 | 6.0 | 12.0 | 0.00 | 0.05 | 0.05 | 1 | 1009.4 |
| 20260510105724 | 53 | 151 | 4.0 | 12.0 | 0.00 | 0.05 | 0.05 | 1 | 1009.3 |
| 20260510105640 | 53 | 190 | 5.0 | 12.0 | 0.00 | 0.05 | 0.05 | 1 | 1009.3 |
| 20260510105511 | 53 | 131 | 4.0 | 12.0 | 0.00 | 0.05 | 0.05 | 1 | 1009.2 |
| 20260510105434 | 53 | 178 | 4.0 | 12.0 | 0.00 | 0.05 | 0.05 | 1 | 1009.2 |
| 20260510105235 | 53 | 138 | 5.0 | 12.0 | 0.00 | 0.05 | 0.05 | 1 | 1009.1 |
| 20260510105159 | 53 | 148 | 6.0 | 12.0 | 0.00 | 0.05 | 0.05 | 1 | 1009.1 |
| 20260510105024 | 52 | 148 | 6.0 | 10.0 | 0.00 | 0.05 | 0.05 | 1 | 1009.2 |
| 20260510104942 | 52 | 141 | 6.0 | 10.0 | 0.00 | 0.05 | 0.05 | 1 | 1009.2 |
| 20260510104814 | 52 | 140 | 5.0 | 10.0 | 0.00 | 0.05 | 0.05 | 1 | 1009.2 |
| 20260510104705 | 52 | 114 | 6.0 | 10.0 | 0.00 | 0.05 | 0.05 | 1 | 1009.1 |
| 20260510104527 | 52 | 158 | 6.0 | 10.0 | 0.00 | 0.05 | 0.05 | 1 | 1009.2 |
| 20260510104448 | 52 | 141 | 7.0 | 11.0 | 0.00 | 0.05 | 0.05 | 1 | 1009.2 |
| 20260510104319 | 52 | 192 | 6.0 | 11.0 | 0.00 | 0.05 | 0.05 | 1 | 1009.1 |
| 20260510104235 | 52 | 115 | 5.0 | 10.0 | 0.00 | 0.05 | 0.05 | 1 | 1009.0 |
| 20260510104104 | 52 | 148 | 7.0 | 10.0 | 0.00 | 0.05 | 0.05 | 1 | 1008.9 |
| 20260510104025 | 52 | 171 | 7.0 | 10.0 | 0.00 | 0.05 | 0.05 | 1 | 1008.9 |
| 20260510103828 | 52 | 159 | 4.0 | 15.0 | 0.00 | 0.05 | 0.05 | 1 | 1009.0 |
| 20260510103752 | 52 | 150 | 4.0 | 15.0 | 0.00 | 0.05 | 0.05 | 1 | 1009.0 |
| 20260510103640 | 52 | 113 | 4.0 | 15.0 | 0.00 | 0.05 | 0.05 | 1 | 1009.0 |
| 20260510103534 | 52 | 153 | 4.0 | 15.0 | 0.00 | 0.05 | 0.05 | 1 | 1009.0 |
| 20260510103457 | 52 | 176 | 4.0 | 15.0 | 0.00 | 0.05 | 0.05 | 1 | 1009.0 |
| 20260510103421 | 51 | 160 | 4.0 | 15.0 | 0.00 | 0.05 | 0.05 | 1 | 1009.0 |
| 20260510103335 | 51 | 122 | 5.0 | 15.0 | 0.00 | 0.05 | 0.05 | 1 | 1009.1 |
| 20260510103206 | 51 | 126 | 7.0 | 15.0 | 0.00 | 0.05 | 0.05 | 1 | 1009.1 |
| 20260510103106 | 51 | 155 | 6.0 | 10.0 | 0.00 | 0.05 | 0.05 | 1 | 1009.1 |
| 20260510102917 | 51 | 119 | 3.0 | 10.0 | 0.00 | 0.05 | 0.05 | 1 | 1009.1 |
| 20260510102800 | 51 | 151 | 4.0 | 10.0 | 0.00 | 0.05 | 0.05 | 1 | 1009.1 |
| 20260510102721 | 51 | 134 | 4.0 | 10.0 | 0.00 | 0.05 | 0.05 | 1 | 1009.1 |
| 20260510102530 | 51 | 146 | 4.0 | 10.0 | 0.00 | 0.05 | 0.05 | 1 | 1009.2 |
| 20260510102432 | 51 | 130 | 5.0 | 10.0 | 0.00 | 0.05 | 0.05 | 1 | 1009.2 |
| 20260510102336 | 51 | 146 | 5.0 | 10.0 | 0.00 | 0.05 | 0.05 | 1 | 1009.2 |
| 20260510102258 | 51 | 150 | 4.0 | 10.0 | 0.00 | 0.05 | 0.05 | 1 | 1009.2 |
| 20260510102221 | 51 | 142 | 5.0 | 10.0 | 0.00 | 0.05 | 0.05 | 1 | 1009.2 |
| 20260510102025 | 51 | 139 | 4.0 | 10.0 | 0.01 | 0.05 | 0.05 | 1 | 1009.2 |
| 20260510101929 | 51 | 163 | 4.0 | 10.0 | 0.01 | 0.05 | 0.05 | 1 | 1009.2 |
| 20260510101830 | 51 | 122 | 5.0 | 10.0 | 0.01 | 0.05 | 0.05 | 1 | 1009.2 |
| 20260510101753 | 51 | 157 | 4.0 | 10.0 | 0.01 | 0.05 | 0.05 | 1 | 1009.2 |
| 20260510101715 | 51 | 148 | 4.0 | 10.0 | 0.01 | 0.05 | 0.05 | 1 | 1009.2 |
| 20260510101523 | 51 | 104 | 6.0 | 10.0 | 0.01 | 0.05 | 0.05 | 1 | 1009.2 |
| 20260510101438 | 51 | 190 | 6.0 | 13.0 | 0.01 | 0.05 | 0.05 | 1 | 1009.2 |
| 20260510101400 | 51 | 190 | 5.0 | 13.0 | 0.01 | 0.05 | 0.05 | 1 | 1009.2 |
| 20260510101250 | 51 | 178 | 5.0 | 13.0 | 0.01 | 0.05 | 0.05 | 1 | 1009.1 |
| 20260510101133 | 51 | 183 | 5.0 | 13.0 | 0.01 | 0.05 | 0.05 | 1 | 1009.1 |
| 20260510101056 | 51 | 254 | 5.0 | 13.0 | 0.01 | 0.05 | 0.05 | 1 | 1009.1 |
| 20260510101019 | 51 | 162 | 5.0 | 13.0 | 0.01 | 0.05 | 0.05 | 1 | 1009.0 |
| 20260510100823 | 51 | 244 | 5.0 | 13.0 | 0.01 | 0.05 | 0.05 | 1 | 1008.9 |
| 20260510100727 | 51 | 247 | 6.0 | 13.0 | 0.01 | 0.05 | 0.05 | 1 | 1008.7 |
| 20260510100635 | 51 | 217 | 7.0 | 14.0 | 0.01 | 0.05 | 0.05 | 1 | 1008.5 |
| 20260510100556 | 51 | 213 | 6.0 | 10.0 | 0.01 | 0.05 | 0.05 | 1 | 1008.5 |
| 20260510100427 | 51 | 219 | 5.0 | 11.0 | 0.01 | 0.05 | 0.05 | 1 | 1008.2 |
| 20260510100322 | 51 | 207 | 5.0 | 11.0 | 0.01 | 0.05 | 0.05 | 1 | 1008.0 |
| 20260510100133 | 50 | 142 | 7.0 | 11.0 | 0.01 | 0.05 | 0.05 | 1 | 1007.8 |
| 20260510100027 | 50 | 150 | 7.0 | 11.0 | 0.01 | 0.05 | 0.05 | 1 | 1007.8 |
| 20260510095951 | 50 | 123 | 6.0 | 10.0 | 0.01 | 0.05 | 0.05 | 1 | 1007.8 |
| 20260510095907 | 50 | 216 | 5.0 | 10.0 | 0.01 | 0.05 | 0.05 | 1 | 1007.8 |
| 20260510095829 | 50 | 182 | 6.0 | 9.0 | 0.01 | 0.05 | 0.05 | 1 | 1007.9 |
| 20260510095633 | 50 | 185 | 6.0 | 10.0 | 0.01 | 0.05 | 0.05 | 1 | 1008.2 |
| 20260510095539 | 50 | 107 | 6.0 | 10.0 | 0.01 | 0.05 | 0.05 | 1 | 1008.3 |
| 20260510095423 | 50 | 164 | 6.0 | 8.0 | 0.01 | 0.05 | 0.05 | 1 | 1008.3 |
| 20260510095326 | 50 | 138 | 5.0 | 9.0 | 0.01 | 0.05 | 0.05 | 1 | 1008.3 |
| 20260510095232 | 50 | 135 | 5.0 | 8.0 | 0.01 | 0.05 | 0.05 | 1 | 1008.4 |
| 20260510095127 | 50 | 146 | 5.0 | 8.0 | 0.01 | 0.05 | 0.05 | 1 | 1008.5 |
| 20260510095030 | 50 | 147 | 5.0 | 8.0 | 0.01 | 0.05 | 0.05 | 1 | 1008.4 |
| 20260510094933 | 50 | 126 | 4.0 | 8.0 | 0.01 | 0.05 | 0.05 | 1 | 1008.5 |
| 20260510094900 | 50 | 117 | 4.0 | 8.0 | 0.01 | 0.05 | 0.05 | 1 | 1008.5 |
| 20260510094823 | 50 | 146 | 4.0 | 8.0 | 0.01 | 0.05 | 0.05 | 1 | 1008.5 |
| 20260510094626 | 50 | 134 | 4.0 | 8.0 | 0.01 | 0.05 | 0.05 | 1 | 1008.6 |
| 20260510094550 | 50 | 167 | 4.0 | 8.0 | 0.01 | 0.05 | 0.05 | 1 | 1008.6 |
| 20260510094435 | 50 | 121 | 4.0 | 8.0 | 0.01 | 0.05 | 0.05 | 1 | 1008.6 |
| 20260510094356 | 49 | 136 | 3.0 | 5.0 | 0.01 | 0.05 | 0.05 | 1 | 1008.7 |
| 20260510094259 | 49 | 154 | 2.0 | 6.0 | 0.01 | 0.05 | 0.05 | 1 | 1008.7 |
| 20260510094202 | 50 | 134 | 2.0 | 6.0 | 0.01 | 0.05 | 0.05 | 1 | 1008.7 |
| 20260510094126 | 50 | 136 | 2.0 | 6.0 | 0.01 | 0.05 | 0.05 | 1 | 1008.7 |
| 20260510093929 | 50 | 165 | 2.0 | 6.0 | 0.01 | 0.05 | 0.05 | 1 | 1008.6 |
| 20260510093836 | 50 | 132 | 2.0 | 6.0 | 0.01 | 0.05 | 0.05 | 1 | 1008.6 |
| 20260510093737 | 50 | 114 | 1.0 | 6.0 | 0.01 | 0.05 | 0.05 | 1 | 1008.6 |
| 20260510093641 | 50 | 114 | 2.0 | 6.0 | 0.01 | 0.05 | 0.05 | 1 | 1008.6 |
| 20260510093536 | 50 | 112 | 2.0 | 6.0 | 0.01 | 0.05 | 0.05 | 1 | 1008.5 |
| 20260510093428 | 50 | 114 | 2.0 | 5.0 | 0.01 | 0.05 | 0.05 | 1 | 1008.6 |
| 20260510093350 | 50 | 136 | 3.0 | 5.0 | 0.01 | 0.05 | 0.05 | 1 | 1008.6 |
| 20260510093221 | 50 | 123 | 3.0 | 6.0 | 0.01 | 0.05 | 0.05 | 1 | 1008.5 |
| 20260510093136 | 50 | 153 | 2.0 | 5.0 | 0.01 | 0.05 | 0.05 | 1 | 1008.5 |
| 20260510093006 | 50 | 140 | 0.0 | 5.0 | 0.01 | 0.05 | 0.05 | 1 | 1008.6 |
| 20260510092933 | 50 | 195 | 0.0 | 5.0 | 0.01 | 0.05 | 0.05 | 1 | 1008.5 |
| 20260510092738 | 50 | 195 | 2.0 | 5.0 | 0.01 | 0.05 | 0.05 | 1 | 1008.4 |
| 20260510092638 | 50 | 195 | 1.0 | 5.0 | 0.01 | 0.05 | 0.05 | 1 | 1008.4 |
| 20260510092544 | 50 | 136 | 0.0 | 3.0 | 0.01 | 0.05 | 0.05 | 1 | 1008.4 |
| 20260510092505 | 50 | 210 | 0.0 | 0.0 | 0.01 | 0.05 | 0.05 | 1 | 1008.4 |
| 20260510092246 | 50 | 210 | 0.0 | 1.0 | 0.01 | 0.05 | 0.05 | 1 | 1008.3 |
| 20260510092141 | 50 | 210 | 0.0 | 1.0 | 0.01 | 0.05 | 0.05 | 1 | 1008.4 |
| 20260510091932 | 50 | 190 | 0.0 | 3.0 | 0.00 | 0.04 | 0.04 | 1 | 1008.3 |
| 20260510091845 | 50 | 164 | 0.0 | 3.0 | 0.00 | 0.04 | 0.04 | 1 | 1008.3 |
| 20260510091654 | 50 | 155 | 0.0 | 3.0 | 0.00 | 0.04 | 0.04 | 1 | 1008.2 |
| 20260510091541 | 50 | 140 | 0.0 | 3.0 | 0.00 | 0.04 | 0.04 | 1 | 1008.2 |
| 20260510091435 | 50 | 115 | 0.0 | 3.0 | 0.00 | 0.04 | 0.04 | 1 | 1008.2 |
| 20260510091318 | 50 | 115 | 0.0 | 5.0 | 0.00 | 0.04 | 0.04 | 1 | 1008.1 |
| 20260510091251 | 50 | 115 | 0.0 | 5.0 | 0.00 | 0.04 | 0.04 | 1 | 1008.1 |
| 20260510091213 | 50 | 115 | 1.0 | 5.0 | 0.00 | 0.04 | 0.04 | 1 | 1008.1 |
| 20260510091057 | 50 | 115 | 2.0 | 5.0 | 0.00 | 0.04 | 0.04 | 1 | 1008.1 |
| 20260510091020 | 50 | 115 | 1.0 | 5.0 | 0.00 | 0.04 | 0.04 | 1 | 1008.1 |
| 20260510090826 | 51 | 127 | 1.0 | 5.0 | 0.00 | 0.04 | 0.04 | 1 | 1008.1 |
| 20260510090732 | 51 | 127 | 2.0 | 6.0 | 0.00 | 0.04 | 0.04 | 1 | 1008.0 |
| 20260510090647 | 51 | 117 | 2.0 | 6.0 | 0.00 | 0.04 | 0.04 | 1 | 1008.1 |
| 20260510090549 | 51 | 145 | 2.0 | 6.0 | 0.00 | 0.04 | 0.04 | 1 | 1008.1 |
| 20260510090358 | 51 | 155 | 2.0 | 7.0 | 0.00 | 0.04 | 0.04 | 1 | 1008.0 |
| 20260510090252 | 51 | 154 | 2.0 | 7.0 | 0.00 | 0.04 | 0.04 | 1 | 1008.0 |
| 20260510090214 | 51 | 168 | 2.0 | 7.0 | 0.00 | 0.04 | 0.04 | 1 | 1008.0 |
| 20260510090026 | 51 | 153 | 3.0 | 7.0 | 0.00 | 0.04 | 0.04 | 1 | 1008.0 |
| 20260510085941 | 51 | 192 | 4.0 | 7.0 | 0.00 | 0.04 | 0.04 | 1 | 1008.0 |
| 20260510085731 | 51 | 182 | 4.0 | 7.0 | 0.00 | 0.04 | 0.04 | 1 | 1008.0 |
| 20260510085647 | 51 | 159 | 4.0 | 7.0 | 0.00 | 0.04 | 0.04 | 1 | 1008.0 |
| 20260510085518 | 51 | 228 | 3.0 | 8.0 | 0.00 | 0.04 | 0.04 | 1 | 1008.0 |
| 20260510085445 | 51 | 220 | 2.0 | 8.0 | 0.00 | 0.04 | 0.04 | 1 | 1008.0 |
| 20260510085229 | 51 | 250 | 2.0 | 9.0 | 0.00 | 0.04 | 0.04 | 1 | 1007.9 |
| 20260510085152 | 51 | 250 | 3.0 | 9.0 | 0.00 | 0.04 | 0.04 | 1 | 1007.8 |
| 20260510085054 | 51 | 234 | 3.0 | 9.0 | 0.00 | 0.04 | 0.04 | 1 | 1007.7 |
| 20260510084927 | 51 | 205 | 5.0 | 9.0 | 0.00 | 0.04 | 0.04 | 1 | 1007.6 |
| 20260510084852 | 51 | 258 | 5.0 | 9.0 | 0.00 | 0.04 | 0.04 | 1 | 1007.6 |
| 20260510084756 | 51 | 232 | 4.0 | 9.0 | 0.00 | 0.04 | 0.04 | 1 | 1007.5 |
| 20260510084719 | 51 | 229 | 3.0 | 9.0 | 0.00 | 0.04 | 0.04 | 1 | 1007.5 |
| 20260510084523 | 51 | 207 | 4.0 | 9.0 | 0.00 | 0.04 | 0.04 | 1 | 1007.5 |
| 20260510084430 | 51 | 180 | 4.0 | 10.0 | 0.00 | 0.04 | 0.04 | 1 | 1007.5 |
| 20260510084334 | 51 | 197 | 3.0 | 8.0 | 0.00 | 0.04 | 0.04 | 1 | 1007.5 |
| 20260510084256 | 51 | 140 | 3.0 | 8.0 | 0.00 | 0.04 | 0.04 | 1 | 1007.5 |
| 20260510084217 | 51 | 163 | 3.0 | 8.0 | 0.00 | 0.04 | 0.04 | 1 | 1007.6 |
| 20260510084040 | 51 | 111 | 3.0 | 8.0 | 0.00 | 0.04 | 0.04 | 1 | 1007.7 |
| 20260510083944 | 51 | 157 | 4.0 | 8.0 | 0.00 | 0.04 | 0.04 | 1 | 1007.7 |
| 20260510083827 | 51 | 107 | 4.0 | 8.0 | 0.00 | 0.04 | 0.04 | 1 | 1007.8 |
| 20260510083750 | 51 | 134 | 4.0 | 8.0 | 0.00 | 0.04 | 0.04 | 1 | 1007.8 |
| 20260510083712 | 51 | 147 | 4.0 | 8.0 | 0.01 | 0.04 | 0.04 | 1 | 1007.9 |
| 20260510083617 | 51 | 134 | 4.0 | 8.0 | 0.01 | 0.04 | 0.04 | 1 | 1007.9 |
| 20260510083540 | 51 | 133 | 4.0 | 8.0 | 0.01 | 0.04 | 0.04 | 1 | 1008.0 |
| 20260510083415 | 51 | 133 | 3.0 | 7.0 | 0.01 | 0.04 | 0.04 | 1 | 1008.0 |
| 20260510083330 | 51 | 155 | 3.0 | 7.0 | 0.01 | 0.04 | 0.04 | 1 | 1008.0 |
| 20260510083200 | 51 | 132 | 1.0 | 7.0 | 0.01 | 0.04 | 0.04 | 1 | 1008.0 |
| 20260510083101 | 51 | 178 | 1.0 | 7.0 | 0.01 | 0.04 | 0.04 | 1 | 1008.0 |
| 20260510083016 | 51 | 167 | 2.0 | 7.0 | 0.01 | 0.04 | 0.04 | 1 | 1008.0 |
| 20260510082846 | 51 | 167 | 2.0 | 7.0 | 0.01 | 0.04 | 0.04 | 1 | 1008.0 |
| 20260510082745 | 51 | 171 | 3.0 | 7.0 | 0.01 | 0.04 | 0.04 | 1 | 1007.9 |
| 20260510082648 | 51 | 169 | 3.0 | 7.0 | 0.01 | 0.04 | 0.04 | 1 | 1007.9 |
| 20260510082532 | 51 | 157 | 3.0 | 8.0 | 0.01 | 0.04 | 0.04 | 1 | 1007.9 |
| 20260510082456 | 51 | 126 | 2.0 | 8.0 | 0.01 | 0.04 | 0.04 | 1 | 1007.9 |
| 20260510082419 | 51 | 149 | 2.0 | 8.0 | 0.01 | 0.04 | 0.04 | 1 | 1008.0 |
| 20260510082158 | 52 | 182 | 3.0 | 8.0 | 0.02 | 0.04 | 0.04 | 1 | 1008.0 |
| 20260510082103 | 52 | 188 | 3.0 | 9.0 | 0.02 | 0.04 | 0.04 | 1 | 1008.0 |
| 20260510081914 | 52 | 179 | 5.0 | 9.0 | 0.02 | 0.04 | 0.04 | 1 | 1008.0 |
| 20260510081829 | 52 | 126 | 5.0 | 9.0 | 0.02 | 0.04 | 0.04 | 1 | 1008.0 |
| 20260510081639 | 52 | 215 | 4.0 | 11.0 | 0.02 | 0.04 | 0.04 | 1 | 1008.0 |
| 20260510081532 | 52 | 173 | 4.0 | 11.0 | 0.02 | 0.04 | 0.04 | 1 | 1007.9 |
| 20260510081457 | 52 | 229 | 5.0 | 11.0 | 0.02 | 0.04 | 0.04 | 1 | 1007.9 |
| 20260510081359 | 52 | 213 | 5.0 | 11.0 | 0.02 | 0.04 | 0.04 | 1 | 1007.8 |
| 20260510081302 | 52 | 192 | 6.0 | 11.0 | 0.02 | 0.04 | 0.04 | 1 | 1007.8 |
| 20260510081224 | 52 | 174 | 5.0 | 11.0 | 0.02 | 0.04 | 0.04 | 1 | 1007.7 |
| 20260510081027 | 52 | 191 | 6.0 | 11.0 | 0.02 | 0.04 | 0.04 | 1 | 1007.7 |
| 20260510080955 | 52 | 166 | 6.0 | 11.0 | 0.02 | 0.04 | 0.04 | 1 | 1007.7 |
| 20260510080838 | 52 | 202 | 4.0 | 11.0 | 0.02 | 0.04 | 0.04 | 1 | 1007.8 |
| 20260510080801 | 52 | 240 | 3.0 | 11.0 | 0.02 | 0.04 | 0.04 | 1 | 1007.8 |
| 20260510080718 | 52 | 239 | 4.0 | 11.0 | 0.02 | 0.04 | 0.04 | 1 | 1007.7 |
| 20260510080528 | 52 | 161 | 5.0 | 11.0 | 0.02 | 0.04 | 0.04 | 1 | 1007.7 |
| 20260510080452 | 52 | 130 | 6.0 | 11.0 | 0.02 | 0.04 | 0.04 | 1 | 1007.8 |
| 20260510080334 | 52 | 144 | 7.0 | 13.0 | 0.02 | 0.04 | 0.04 | 1 | 1007.9 |
| 20260510080246 | 52 | 163 | 6.0 | 13.0 | 0.02 | 0.04 | 0.04 | 1 | 1008.0 |
| 20260510080119 | 52 | 171 | 4.0 | 14.0 | 0.02 | 0.04 | 0.04 | 1 | 1008.0 |
| 20260510080052 | 52 | 160 | 5.0 | 14.0 | 0.02 | 0.04 | 0.04 | 1 | 1008.0 |
| 20260510080017 | 52 | 193 | 5.0 | 14.0 | 0.02 | 0.04 | 0.04 | 1 | 1008.0 |
| 20260510075831 | 52 | 212 | 6.0 | 14.0 | 0.03 | 0.04 | 0.04 | 1 | 1008.0 |
| 20260510075754 | 52 | 215 | 7.0 | 14.0 | 0.03 | 0.04 | 0.04 | 1 | 1008.0 |
| 20260510075637 | 52 | 122 | 9.0 | 14.0 | 0.04 | 0.04 | 0.04 | 1 | 1008.1 |
| 20260510075600 | 52 | 175 | 9.0 | 14.0 | 0.04 | 0.04 | 0.04 | 1 | 1008.1 |
| 20260510075515 | 52 | 153 | 8.0 | 14.0 | 0.04 | 0.04 | 0.04 | 1 | 1008.0 |
| 20260510075344 | 52 | 194 | 9.0 | 14.0 | 0.04 | 0.04 | 0.04 | 1 | 1008.1 |
| 20260510075247 | 52 | 133 | 9.0 | 14.0 | 0.04 | 0.04 | 0.04 | 1 | 1008.1 |
| 20260510075111 | 52 | 137 | 8.0 | 12.0 | 0.04 | 0.04 | 0.04 | 1 | 1008.1 |
| 20260510075041 | 52 | 163 | 8.0 | 12.0 | 0.04 | 0.04 | 0.04 | 1 | 1008.1 |
| 20260510074911 | 52 | 181 | 7.0 | 13.0 | 0.04 | 0.04 | 0.04 | 1 | 1008.2 |
| 20260510074817 | 52 | 146 | 7.0 | 11.0 | 0.04 | 0.04 | 0.04 | 1 | 1008.3 |
| 20260510074659 | 52 | 149 | 6.0 | 11.0 | 0.04 | 0.04 | 0.04 | 1 | 1008.3 |
| 20260510074621 | 52 | 153 | 6.0 | 14.0 | 0.04 | 0.04 | 0.04 | 1 | 1008.4 |
| 20260510074423 | 52 | 142 | 7.0 | 14.0 | 0.04 | 0.04 | 0.04 | 1 | 1008.4 |
| 20260510074326 | 52 | 118 | 7.0 | 14.0 | 0.04 | 0.04 | 0.04 | 1 | 1008.4 |
| 20260510074228 | 52 | 163 | 7.0 | 14.0 | 0.04 | 0.04 | 0.04 | 1 | 1008.4 |
| 20260510074152 | 52 | 150 | 5.0 | 14.0 | 0.04 | 0.04 | 0.04 | 1 | 1008.4 |
| 20260510074116 | 52 | 158 | 5.0 | 14.0 | 0.04 | 0.04 | 0.04 | 1 | 1008.4 |
| 20260510073938 | 52 | 178 | 7.0 | 14.0 | 0.04 | 0.04 | 0.04 | 1 | 1008.4 |
| 20260510073842 | 52 | 179 | 8.0 | 14.0 | 0.04 | 0.04 | 0.04 | 1 | 1008.4 |
| 20260510073729 | 52 | 173 | 7.0 | 13.0 | 0.03 | 0.03 | 0.03 | 1 | 1008.4 |
| 20260510073651 | 52 | 125 | 6.0 | 10.0 | 0.03 | 0.03 | 0.03 | 1 | 1008.4 |
| 20260510073522 | 52 | 157 | 4.0 | 10.0 | 0.03 | 0.03 | 0.03 | 1 | 1008.4 |
| 20260510073437 | 52 | 120 | 5.0 | 10.0 | 0.03 | 0.03 | 0.03 | 1 | 1008.5 |
| 20260510073309 | 52 | 193 | 6.0 | 10.0 | 0.03 | 0.03 | 0.03 | 1 | 1008.5 |
| 20260510073231 | 52 | 137 | 6.0 | 13.0 | 0.03 | 0.03 | 0.03 | 1 | 1008.6 |
| 20260510073034 | 52 | 118 | 4.0 | 13.0 | 0.03 | 0.03 | 0.03 | 1 | 1008.6 |
| 20260510072958 | 52 | 123 | 4.0 | 13.0 | 0.03 | 0.03 | 0.03 | 1 | 1008.6 |
| 20260510072902 | 52 | 167 | 4.0 | 13.0 | 0.03 | 0.03 | 0.03 | 1 | 1008.6 |
| 20260510072824 | 52 | 157 | 4.0 | 13.0 | 0.03 | 0.03 | 0.03 | 1 | 1008.6 |
| 20260510072639 | 52 | 188 | 5.0 | 13.0 | 0.03 | 0.03 | 0.03 | 1 | 1008.6 |
| 20260510072533 | 52 | 223 | 6.0 | 13.0 | 0.03 | 0.03 | 0.03 | 1 | 1008.5 |
| 20260510072457 | 52 | 192 | 6.0 | 13.0 | 0.03 | 0.03 | 0.03 | 1 | 1008.5 |
| 20260510072402 | 52 | 150 | 4.0 | 8.0 | 0.03 | 0.03 | 0.03 | 1 | 1008.4 |
| 20260510072324 | 52 | 169 | 3.0 | 8.0 | 0.03 | 0.03 | 0.03 | 1 | 1008.3 |
| 20260510072155 | 52 | 150 | 5.0 | 8.0 | 0.02 | 0.02 | 0.02 | 1 | 1008.4 |
| 20260510072029 | 52 | 141 | 5.0 | 9.0 | 0.02 | 0.02 | 0.02 | 1 | 1008.4 |
| 20260510071924 | 52 | 158 | 5.0 | 9.0 | 0.02 | 0.02 | 0.02 | 1 | 1008.4 |
| 20260510071845 | 52 | 138 | 5.0 | 9.0 | 0.02 | 0.02 | 0.02 | 1 | 1008.4 |
| 20260510071717 | 53 | 186 | 6.0 | 9.0 | 0.02 | 0.02 | 0.02 | 1 | 1008.5 |
| 20260510071622 | 53 | 173 | 5.0 | 10.0 | 0.02 | 0.02 | 0.02 | 1 | 1008.5 |
| 20260510071515 | 53 | 161 | 4.0 | 9.0 | 0.02 | 0.02 | 0.02 | 1 | 1008.5 |
| 20260510071436 | 53 | 188 | 5.0 | 9.0 | 0.02 | 0.02 | 0.02 | 1 | 1008.5 |
| 20260510071246 | 53 | 120 | 6.0 | 9.0 | 0.02 | 0.02 | 0.02 | 1 | 1008.5 |
| 20260510071140 | 53 | 218 | 6.0 | 10.0 | 0.02 | 0.02 | 0.02 | 1 | 1008.4 |
| 20260510071010 | 53 | 128 | 6.0 | 12.0 | 0.02 | 0.02 | 0.02 | 1 | 1008.5 |
| 20260510070933 | 53 | 162 | 6.0 | 12.0 | 0.02 | 0.02 | 0.02 | 1 | 1008.6 |
| 20260510070734 | 53 | 177 | 6.0 | 12.0 | 0.02 | 0.02 | 0.02 | 1 | 1008.5 |
| 20260510070658 | 53 | 178 | 6.0 | 12.0 | 0.02 | 0.02 | 0.02 | 1 | 1008.5 |
| 20260510070523 | 53 | 170 | 6.0 | 12.0 | 0.02 | 0.02 | 0.02 | 1 | 1008.6 |
| 20260510070441 | 53 | 162 | 7.0 | 12.0 | 0.02 | 0.02 | 0.02 | 1 | 1008.6 |
| 20260510070311 | 53 | 121 | 8.0 | 12.0 | 0.02 | 0.02 | 0.02 | 1 | 1008.5 |
| 20260510070233 | 53 | 146 | 7.0 | 14.0 | 0.02 | 0.02 | 0.02 | 1 | 1008.5 |
| 20260510070104 | 53 | 146 | 5.0 | 12.0 | 0.02 | 0.02 | 0.02 | 1 | 1008.6 |
| 20260510070020 | 53 | 178 | 5.0 | 12.0 | 0.01 | 0.01 | 0.01 | 1 | 1008.6 |
| 20260510065830 | 53 | 167 | 5.0 | 12.0 | 0.01 | 0.01 | 0.01 | 1 | 1008.8 |
| 20260510065731 | 53 | 178 | 5.0 | 12.0 | 0.00 | 0.00 | 0.00 | 1 | 1008.7 |
| 20260510065534 | 53 | 204 | 5.0 | 11.0 | 0.00 | 0.00 | 0.00 | 1 | 1008.7 |
| 20260510065458 | 53 | 173 | 6.0 | 11.0 | 0.00 | 0.00 | 0.00 | 1 | 1008.7 |
| 20260510065321 | 53 | 152 | 8.0 | 11.0 | 0.00 | 0.00 | 0.00 | 1 | 1008.7 |
| 20260510065242 | 53 | 194 | 7.0 | 11.0 | 0.00 | 0.00 | 0.00 | 1 | 1008.7 |
| 20260510065144 | 53 | 150 | 5.0 | 11.0 | 0.00 | 0.00 | 0.00 | 1 | 1008.7 |
| 20260510065027 | 53 | 174 | 6.0 | 11.0 | 0.00 | 0.00 | 0.00 | 1 | 1008.6 |
| 20260510064950 | 53 | 201 | 7.0 | 11.0 | 0.00 | 0.00 | 0.00 | 1 | 1008.7 |
| 20260510064833 | 53 | 188 | 6.0 | 11.0 | 0.00 | 0.00 | 0.00 | 1 | 1008.7 |
| 20260510064733 | 53 | 194 | 6.0 | 12.0 | 0.00 | 0.00 | 0.00 | 1 | 1008.6 |
| 20260510064604 | 54 | 162 | 7.0 | 12.0 | 0.00 | 0.00 | 0.00 | 1 | 1008.6 |
| 20260510064506 | 54 | 175 | 7.0 | 12.0 | 0.00 | 0.00 | 0.00 | 1 | 1008.6 |
| 20260510064328 | 54 | 182 | 6.0 | 12.0 | 0.00 | 0.00 | 0.00 | 1 | 1008.5 |
| 20260510064252 | 54 | 155 | 7.0 | 12.0 | 0.00 | 0.00 | 0.00 | 1 | 1008.5 |
| 20260510064210 | 54 | 207 | 8.0 | 12.0 | 0.00 | 0.00 | 0.00 | 1 | 1008.6 |
| 20260510064042 | 54 | 163 | 5.0 | 12.0 | 0.00 | 0.00 | 0.00 | 1 | 1008.6 |
| 20260510063942 | 54 | 167 | 6.0 | 12.0 | 0.00 | 0.00 | 0.00 | 1 | 1008.6 |
| 20260510063815 | 54 | 174 | 6.0 | 12.0 | 0.00 | 0.00 | 0.00 | 1 | 1008.5 |
| 20260510063726 | 54 | 134 | 7.0 | 12.0 | 0.00 | 0.00 | 0.00 | 1 | 1008.4 |
| 20260510063538 | 54 | 177 | 8.0 | 14.0 | 0.00 | 0.00 | 0.00 | 1 | 1008.5 |
| 20260510063432 | 53 | 155 | 8.0 | 14.0 | 0.00 | 0.00 | 0.00 | 1 | 1008.5 |
| 20260510063356 | 53 | 152 | 7.0 | 14.0 | 0.00 | 0.00 | 0.00 | 1 | 1008.5 |
| 20260510063239 | 53 | 200 | 6.0 | 14.0 | 0.00 | 0.00 | 0.00 | 1 | 1008.4 |
| 20260510063202 | 53 | 165 | 6.0 | 14.0 | 0.00 | 0.00 | 0.00 | 1 | 1008.4 |
| 20260510063122 | 53 | 173 | 7.0 | 14.0 | 0.00 | 0.00 | 0.00 | 1 | 1008.3 |
| 20260510062944 | 53 | 167 | 6.0 | 14.0 | 0.00 | 0.00 | 0.00 | 1 | 1008.2 |
| 20260510062839 | 53 | 154 | 9.0 | 14.0 | 0.00 | 0.00 | 0.00 | 1 | 1008.2 |
| 20260510062734 | 53 | 177 | 8.0 | 14.0 | 0.00 | 0.00 | 0.00 | 1 | 1008.2 |
| 20260510062655 | 53 | 186 | 5.0 | 14.0 | 0.00 | 0.00 | 0.00 | 1 | 1008.2 |
| 20260510062506 | 53 | 193 | 7.0 | 14.0 | 0.00 | 0.00 | 0.00 | 1 | 1008.2 |
| 20260510062422 | 53 | 168 | 6.0 | 14.0 | 0.00 | 0.00 | 0.00 | 1 | 1008.2 |
| 20260510062252 | 53 | 234 | 6.0 | 10.0 | 0.00 | 0.00 | 0.00 | 1 | 1008.1 |
| 20260510062155 | 53 | 178 | 5.0 | 10.0 | 0.00 | 0.00 | 0.00 | 1 | 1008.1 |
| 20260510062022 | 53 | 180 | 3.0 | 10.0 | 0.00 | 0.00 | 0.00 | 1 | 1008.1 |
| 20260510061946 | 53 | 162 | 4.0 | 10.0 | 0.00 | 0.00 | 0.00 | 1 | 1008.1 |
| 20260510061842 | 53 | 134 | 6.0 | 10.0 | 0.00 | 0.00 | 0.00 | 1 | 1008.1 |
| 20260510061725 | 53 | 163 | 6.0 | 12.0 | 0.00 | 0.00 | 0.00 | 1 | 1008.1 |
| 20260510061649 | 53 | 175 | 4.0 | 7.0 | 0.00 | 0.00 | 0.00 | 1 | 1008.1 |
| 20260510061520 | 53 | 155 | 3.0 | 5.0 | 0.00 | 0.00 | 0.00 | 1 | 1008.0 |
| 20260510061339 | 53 | 143 | 3.0 | 8.0 | 0.00 | 0.00 | 0.00 | 1 | 1008.0 |
| 20260510061243 | 53 | 151 | 3.0 | 8.0 | 0.00 | 0.00 | 0.00 | 1 | 1008.0 |
| 20260510061131 | 53 | 185 | 2.0 | 8.0 | 0.00 | 0.00 | 0.00 | 1 | 1008.0 |
| 20260510061052 | 53 | 135 | 2.0 | 8.0 | 0.00 | 0.00 | 0.00 | 1 | 1008.0 |
| 20260510060934 | 53 | 155 | 3.0 | 8.0 | 0.00 | 0.00 | 0.00 | 1 | 1008.0 |
| 20260510060857 | 53 | 155 | 3.0 | 8.0 | 0.00 | 0.00 | 0.00 | 1 | 1008.0 |
| 20260510060820 | 53 | 150 | 3.0 | 8.0 | 0.00 | 0.00 | 0.00 | 1 | 1008.0 |
| 20260510060644 | 53 | 128 | 3.0 | 8.0 | 0.00 | 0.00 | 0.00 | 1 | 1008.0 |
| 20260510060605 | 53 | 147 | 3.0 | 6.0 | 0.00 | 0.00 | 0.00 | 1 | 1008.0 |
| 20260510060415 | 53 | 142 | 3.0 | 6.0 | 0.00 | 0.00 | 0.00 | 1 | 1008.0 |
| 20260510060330 | 53 | 171 | 3.0 | 6.0 | 0.00 | 0.00 | 0.00 | 1 | 1008.0 |
| 20260510060148 | 53 | 120 | 3.0 | 6.0 | 0.00 | 0.00 | 0.00 | 1 | 1008.0 |
| 20260510060051 | 53 | 166 | 3.0 | 6.0 | 0.00 | 0.00 | 0.00 | 1 | 1008.0 |
| 20260510060007 | 53 | 166 | 3.0 | 6.0 | 0.00 | 0.00 | 0.00 | 1 | 1008.1 |
| 20260510055944 | 53 | 103 | 3.0 | 6.0 | 0.00 | 0.00 | 0.00 | 1 | 1008.1 |
| 20260510055814 | 53 | 107 | 4.0 | 6.0 | 0.00 | 0.00 | 0.00 | 1 | 1008.1 |
| 20260510055728 | 53 | 157 | 4.0 | 6.0 | 0.00 | 0.00 | 0.00 | 1 | 1008.1 |
| 20260510055610 | 53 | 144 | 4.0 | 7.0 | 0.00 | 0.00 | 0.00 | 1 | 1008.1 |
| 20260510055531 | 53 | 196 | 3.0 | 7.0 | 0.00 | 0.00 | 0.00 | 1 | 1008.1 |
| 20260510055335 | 53 | 144 | 3.0 | 7.0 | 0.00 | 0.00 | 0.00 | 1 | 1008.1 |
| 20260510055239 | 53 | 129 | 4.0 | 7.0 | 0.00 | 0.00 | 0.00 | 1 | 1008.1 |
| 20260510055121 | 53 | 144 | 3.0 | 7.0 | 0.00 | 0.00 | 0.00 | 1 | 1008.0 |
| 20260510055045 | 53 | 145 | 3.0 | 8.0 | 0.00 | 0.00 | 0.00 | 1 | 1008.0 |
| 20260510054926 | 53 | 141 | 2.0 | 8.0 | 0.00 | 0.00 | 0.00 | 1 | 1008.1 |
| 20260510054830 | 53 | 131 | 3.0 | 9.0 | 0.00 | 0.00 | 0.00 | 1 | 1008.1 |
| 20260510054753 | 53 | 119 | 4.0 | 9.0 | 0.00 | 0.00 | 0.00 | 1 | 1008.1 |
| 20260510054716 | 53 | 158 | 5.0 | 9.0 | 0.00 | 0.00 | 0.00 | 1 | 1008.2 |
| 20260510054538 | 53 | 183 | 3.0 | 9.0 | 0.00 | 0.00 | 0.00 | 1 | 1008.4 |
| 20260510054442 | 53 | 173 | 3.0 | 10.0 | 0.00 | 0.00 | 0.00 | 1 | 1008.4 |
| 20260510054327 | 53 | 175 | 4.0 | 10.0 | 0.00 | 0.00 | 0.00 | 1 | 1008.3 |
| 20260510054248 | 53 | 180 | 4.0 | 10.0 | 0.00 | 0.00 | 0.00 | 1 | 1008.3 |
| 20260510054031 | 53 | 127 | 5.0 | 10.0 | 0.00 | 0.00 | 0.00 | 1 | 1008.3 |
| 20260510053937 | 53 | 196 | 6.0 | 10.0 | 0.00 | 0.00 | 0.00 | 1 | 1008.2 |
| 20260510053843 | 53 | 198 | 6.0 | 10.0 | 0.00 | 0.00 | 0.00 | 1 | 1008.2 |
| 20260510053723 | 53 | 138 | 6.0 | 10.0 | 0.00 | 0.00 | 0.00 | 1 | 1008.1 |
| 20260510053626 | 53 | 231 | 6.0 | 10.0 | 0.00 | 0.00 | 0.00 | 1 | 1008.1 |
| 20260510053549 | 53 | 144 | 6.0 | 10.0 | 0.00 | 0.00 | 0.00 | 1 | 1008.1 |
| 20260510053512 | 53 | 167 | 5.0 | 10.0 | 0.00 | 0.00 | 0.00 | 1 | 1008.1 |
| 20260510053416 | 53 | 159 | 5.0 | 10.0 | 0.00 | 0.00 | 0.00 | 1 | 1008.0 |
| 20260510053339 | 53 | 154 | 5.0 | 17.0 | 0.00 | 0.00 | 0.00 | 1 | 1008.1 |
| 20260510053121 | 53 | 156 | 5.0 | 17.0 | 0.00 | 0.00 | 0.00 | 1 | 1008.1 |
| 20260510053039 | 53 | 149 | 5.0 | 17.0 | 0.00 | 0.00 | 0.00 | 1 | 1008.1 |
| 20260510052922 | 53 | 166 | 5.0 | 17.0 | 0.00 | 0.00 | 0.00 | 1 | 1008.1 |
| 20260510052845 | 53 | 132 | 5.0 | 17.0 | 0.00 | 0.00 | 0.00 | 1 | 1008.1 |
| 20260510052808 | 53 | 200 | 6.0 | 17.0 | 0.00 | 0.00 | 0.00 | 1 | 1008.0 |
| 20260510052652 | 53 | 167 | 8.0 | 17.0 | 0.00 | 0.00 | 0.00 | 1 | 1008.1 |
| 20260510052551 | 53 | 153 | 9.0 | 17.0 | 0.00 | 0.00 | 0.00 | 1 | 1008.1 |
| 20260510052423 | 53 | 184 | 5.0 | 16.0 | 0.00 | 0.00 | 0.00 | 1 | 1008.0 |
| 20260510052318 | 53 | 171 | 7.0 | 16.0 | 0.00 | 0.00 | 0.00 | 1 | 1008.1 |
| 20260510052129 | 53 | 151 | 6.0 | 16.0 | 0.00 | 0.00 | 0.00 | 1 | 1008.1 |
| 20260510052044 | 53 | 158 | 7.0 | 16.0 | 0.00 | 0.00 | 0.00 | 1 | 1008.1 |
| 20260510051915 | 53 | 135 | 8.0 | 16.0 | 0.00 | 0.00 | 0.00 | 1 | 1008.1 |
| 20260510051842 | 53 | 162 | 8.0 | 15.0 | 0.00 | 0.00 | 0.00 | 1 | 1008.1 |
| 20260510051713 | 53 | 184 | 6.0 | 12.0 | 0.00 | 0.00 | 0.00 | 1 | 1008.1 |
| 20260510051627 | 53 | 145 | 4.0 | 12.0 | 0.00 | 0.00 | 0.00 | 1 | 1008.1 |
| 20260510051407 | 53 | 196 | 6.0 | 12.0 | 0.00 | 0.00 | 0.00 | 1 | 1008.1 |
| 20260510051331 | 53 | 126 | 7.0 | 12.0 | 0.00 | 0.00 | 0.00 | 1 | 1008.0 |
| 20260510051133 | 53 | 195 | 8.0 | 14.0 | 0.00 | 0.00 | 0.00 | 1 | 1008.1 |
| 20260510051057 | 53 | 219 | 6.0 | 14.0 | 0.00 | 0.00 | 0.00 | 1 | 1008.1 |
| 20260510050940 | 53 | 156 | 6.0 | 14.0 | 0.00 | 0.00 | 0.00 | 1 | 1008.1 |
| 20260510050903 | 53 | 131 | 7.0 | 14.0 | 0.00 | 0.00 | 0.00 | 1 | 1008.1 |
| 20260510050725 | 53 | 157 | 7.0 | 14.0 | 0.00 | 0.00 | 0.00 | 1 | 1008.2 |
| 20260510050653 | 53 | 94 | 6.0 | 14.0 | 0.00 | 0.00 | 0.00 | 1 | 1008.2 |
| 20260510050609 | 53 | 137 | 8.0 | 14.0 | 0.00 | 0.00 | 0.00 | 1 | 1008.2 |
| 20260510050419 | 53 | 130 | 10.0 | 14.0 | 0.00 | 0.00 | 0.00 | 1 | 1008.2 |
| 20260510050342 | 53 | 171 | 8.0 | 14.0 | 0.00 | 0.00 | 0.00 | 1 | 1008.2 |
| 20260510050213 | 53 | 145 | 5.0 | 12.0 | 0.00 | 0.00 | 0.00 | 1 | 1008.1 |
| 20260510050105 | 53 | 173 | 5.0 | 12.0 | 0.00 | 0.00 | 0.00 | 1 | 1008.1 |
| 20260510045944 | 53 | 157 | 8.0 | 12.0 | 0.00 | 0.00 | 0.00 | 1 | 1008.1 |
| 20260510045847 | 53 | 151 | 8.0 | 12.0 | 0.00 | 0.00 | 0.00 | 1 | 1008.1 |
| 20260510045743 | 53 | 180 | 7.0 | 12.0 | 0.00 | 0.00 | 0.00 | 1 | 1008.1 |
| 20260510045623 | 53 | 139 | 5.0 | 12.0 | 0.00 | 0.00 | 0.00 | 1 | 1008.1 |
| 20260510045546 | 53 | 172 | 6.0 | 12.0 | 0.00 | 0.00 | 0.00 | 1 | 1008.1 |
| 20260510045513 | 53 | 161 | 6.0 | 15.0 | 0.00 | 0.00 | 0.00 | 1 | 1008.1 |
| 20260510045417 | 53 | 184 | 5.0 | 15.0 | 0.00 | 0.00 | 0.00 | 1 | 1008.2 |
| 20260510045319 | 53 | 153 | 5.0 | 15.0 | 0.00 | 0.00 | 0.00 | 1 | 1008.2 |
| 20260510045131 | 53 | 125 | 5.0 | 15.0 | 0.00 | 0.00 | 0.00 | 1 | 1008.3 |
| 20260510045047 | 53 | 195 | 4.0 | 15.0 | 0.00 | 0.00 | 0.00 | 1 | 1008.2 |
| 20260510044929 | 53 | 141 | 5.0 | 15.0 | 0.00 | 0.00 | 0.00 | 1 | 1008.2 |
| 20260510044833 | 53 | 141 | 5.0 | 15.0 | 0.00 | 0.00 | 0.00 | 1 | 1008.2 |
| 20260510044757 | 53 | 164 | 6.0 | 15.0 | 0.00 | 0.00 | 0.00 | 1 | 1008.2 |
| 20260510044713 | 53 | 143 | 8.0 | 15.0 | 0.00 | 0.00 | 0.00 | 1 | 1008.2 |
| 20260510044528 | 53 | 151 | 7.0 | 10.0 | 0.00 | 0.00 | 0.00 | 1 | 1008.2 |
| 20260510044421 | 53 | 159 | 7.0 | 10.0 | 0.00 | 0.00 | 0.00 | 1 | 1008.2 |
| 20260510044232 | 53 | 105 | 6.0 | 10.0 | 0.00 | 0.00 | 0.00 | 1 | 1008.2 |
| 20260510044146 | 53 | 185 | 6.0 | 10.0 | 0.00 | 0.00 | 0.00 | 1 | 1008.2 |
| 20260510044017 | 53 | 153 | 3.0 | 10.0 | 0.00 | 0.00 | 0.00 | 1 | 1008.1 |
| 20260510043937 | 53 | 145 | 3.0 | 10.0 | 0.00 | 0.00 | 0.00 | 1 | 1008.0 |
| 20260510043741 | 53 | 164 | 4.0 | 10.0 | 0.00 | 0.00 | 0.00 | 1 | 1008.0 |
| 20260510043644 | 53 | 153 | 5.0 | 10.0 | 0.00 | 0.00 | 0.00 | 1 | 1008.0 |
| 20260510043526 | 53 | 136 | 5.0 | 10.0 | 0.00 | 0.00 | 0.00 | 1 | 1008.0 |
| 20260510043455 | 53 | 175 | 4.0 | 10.0 | 0.00 | 0.00 | 0.00 | 1 | 1008.0 |
| 20260510043410 | 53 | 126 | 3.0 | 10.0 | 0.00 | 0.00 | 0.00 | 1 | 1008.1 |
| 20260510043220 | 53 | 173 | 5.0 | 10.0 | 0.00 | 0.00 | 0.00 | 1 | 1008.1 |
| 20260510043122 | 53 | 168 | 5.0 | 11.0 | 0.00 | 0.00 | 0.00 | 1 | 1008.1 |
| 20260510042935 | 53 | 105 | 5.0 | 10.0 | 0.00 | 0.00 | 0.00 | 1 | 1008.1 |
| 20260510042859 | 53 | 192 | 5.0 | 10.0 | 0.00 | 0.00 | 0.00 | 1 | 1008.1 |
| 20260510042723 | 53 | 165 | 5.0 | 11.0 | 0.00 | 0.00 | 0.00 | 1 | 1008.1 |
| 20260510042637 | 53 | 144 | 3.0 | 8.0 | 0.00 | 0.00 | 0.00 | 1 | 1008.1 |
| 20260510042508 | 53 | 160 | 2.0 | 10.0 | 0.00 | 0.00 | 0.00 | 1 | 1008.1 |
| 20260510042431 | 53 | 168 | 2.0 | 10.0 | 0.00 | 0.00 | 0.00 | 1 | 1008.1 |
| 20260510042256 | 53 | 163 | 4.0 | 10.0 | 0.00 | 0.00 | 0.00 | 1 | 1008.1 |
| 20260510042127 | 53 | 163 | 4.0 | 10.0 | 0.00 | 0.00 | 0.00 | 1 | 1008.1 |
| 20260510042051 | 53 | 163 | 5.0 | 10.0 | 0.00 | 0.00 | 0.00 | 1 | 1008.1 |
| 20260510041936 | 53 | 164 | 5.0 | 10.0 | 0.00 | 0.00 | 0.00 | 1 | 1008.0 |
| 20260510041830 | 53 | 125 | 5.0 | 10.0 | 0.00 | 0.00 | 0.00 | 1 | 1008.0 |
| 20260510041732 | 53 | 171 | 5.0 | 10.0 | 0.00 | 0.00 | 0.00 | 1 | 1007.9 |
| 20260510041626 | 53 | 143 | 6.0 | 10.0 | 0.00 | 0.00 | 0.00 | 1 | 1007.9 |
| 20260510041549 | 53 | 145 | 5.0 | 8.0 | 0.00 | 0.00 | 0.00 | 1 | 1007.9 |
| 20260510041437 | 53 | 146 | 3.0 | 7.0 | 0.00 | 0.00 | 0.00 | 1 | 1008.0 |
| 20260510041401 | 53 | 173 | 4.0 | 7.0 | 0.00 | 0.00 | 0.00 | 1 | 1008.0 |
| 20260510041316 | 53 | 144 | 5.0 | 8.0 | 0.00 | 0.00 | 0.00 | 1 | 1007.9 |
| 20260510041127 | 53 | 158 | 3.0 | 11.0 | 0.00 | 0.00 | 0.00 | 1 | 1007.9 |
| 20260510041042 | 53 | 192 | 2.0 | 11.0 | 0.00 | 0.00 | 0.00 | 1 | 1007.9 |
| 20260510040853 | 53 | 142 | 4.0 | 11.0 | 0.00 | 0.00 | 0.00 | 1 | 1007.9 |
| 20260510040735 | 53 | 157 | 3.0 | 11.0 | 0.00 | 0.00 | 0.00 | 1 | 1007.9 |
| 20260510040637 | 53 | 236 | 3.0 | 11.0 | 0.00 | 0.00 | 0.00 | 1 | 1007.9 |
| 20260510040600 | 53 | 138 | 4.0 | 11.0 | 0.00 | 0.00 | 0.00 | 1 | 1007.9 |
| 20260510040524 | 53 | 167 | 4.0 | 11.0 | 0.00 | 0.00 | 0.00 | 1 | 1007.9 |
| 20260510040332 | 53 | 169 | 6.0 | 11.0 | 0.00 | 0.00 | 0.00 | 1 | 1007.8 |
| 20260510040254 | 53 | 155 | 6.0 | 11.0 | 0.00 | 0.00 | 0.00 | 1 | 1007.8 |
| 20260510040138 | 53 | 150 | 5.0 | 11.0 | 0.00 | 0.00 | 0.00 | 1 | 1007.8 |
| 20260510040018 | 53 | 175 | 3.0 | 5.0 | 0.00 | 0.00 | 0.00 | 1 | 1007.8 |
| 20260510035830 | 54 | 200 | 2.0 | 5.0 | 0.00 | 0.00 | 0.00 | 1 | 1007.7 |
| 20260510035745 | 54 | 219 | 2.0 | 5.0 | 0.00 | 0.00 | 0.00 | 1 | 1007.7 |
| 20260510035616 | 54 | 185 | 3.0 | 5.0 | 0.00 | 0.00 | 0.00 | 1 | 1007.7 |
| 20260510035537 | 54 | 205 | 3.0 | 5.0 | 0.00 | 0.00 | 0.00 | 1 | 1007.7 |
| 20260510035410 | 54 | 199 | 3.0 | 6.0 | 0.00 | 0.00 | 0.00 | 1 | 1007.7 |
| 20260510035330 | 54 | 193 | 3.0 | 5.0 | 0.00 | 0.00 | 0.00 | 1 | 1007.8 |
| 20260510035141 | 54 | 152 | 3.0 | 5.0 | 0.00 | 0.00 | 0.00 | 1 | 1007.7 |
| 20260510035025 | 54 | 172 | 2.0 | 4.0 | 0.00 | 0.00 | 0.00 | 1 | 1007.7 |
| 20260510034949 | 54 | 150 | 2.0 | 4.0 | 0.00 | 0.00 | 0.00 | 1 | 1007.7 |
| 20260510034824 | 54 | 135 | 2.0 | 6.0 | 0.00 | 0.00 | 0.00 | 1 | 1007.7 |
| 20260510034737 | 54 | 219 | 1.0 | 6.0 | 0.00 | 0.00 | 0.00 | 1 | 1007.8 |
| 20260510034641 | 54 | 217 | 1.0 | 6.0 | 0.00 | 0.00 | 0.00 | 1 | 1007.8 |
| 20260510034608 | 54 | 194 | 2.0 | 6.0 | 0.00 | 0.00 | 0.00 | 1 | 1007.8 |
| 20260510034421 | 54 | 193 | 1.0 | 6.0 | 0.00 | 0.00 | 0.00 | 1 | 1007.8 |
| 20260510034344 | 54 | 183 | 1.0 | 6.0 | 0.00 | 0.00 | 0.00 | 1 | 1007.8 |
| 20260510034215 | 54 | 196 | 3.0 | 6.0 | 0.00 | 0.00 | 0.00 | 1 | 1007.8 |
| 20260510034110 | 54 | 227 | 3.0 | 6.0 | 0.00 | 0.00 | 0.00 | 1 | 1007.8 |
| 20260510033921 | 54 | 215 | 2.0 | 7.0 | 0.00 | 0.00 | 0.00 | 1 | 1007.8 |
| 20260510033843 | 54 | 228 | 3.0 | 11.0 | 0.00 | 0.00 | 0.00 | 1 | 1007.8 |
| 20260510033625 | 54 | 200 | 3.0 | 11.0 | 0.00 | 0.00 | 0.00 | 1 | 1007.8 |
| 20260510033549 | 54 | 220 | 3.0 | 11.0 | 0.00 | 0.00 | 0.00 | 1 | 1007.8 |
| 20260510033454 | 55 | 226 | 3.0 | 14.0 | 0.00 | 0.00 | 0.00 | 1 | 1007.8 |
| 20260510033417 | 55 | 216 | 3.0 | 14.0 | 0.00 | 0.00 | 0.00 | 1 | 1007.8 |
| 20260510033228 | 55 | 186 | 3.0 | 14.0 | 0.00 | 0.00 | 0.00 | 1 | 1007.9 |
| 20260510033125 | 55 | 138 | 5.0 | 14.0 | 0.00 | 0.00 | 0.00 | 1 | 1007.9 |
| 20260510033058 | 55 | 194 | 6.0 | 14.0 | 0.00 | 0.00 | 0.00 | 1 | 1007.9 |
| 20260510032924 | 55 | 194 | 6.0 | 14.0 | 0.00 | 0.00 | 0.00 | 1 | 1007.9 |
| 20260510032838 | 55 | 144 | 7.0 | 14.0 | 0.00 | 0.00 | 0.00 | 1 | 1007.9 |
| 20260510032741 | 55 | 158 | 7.0 | 14.0 | 0.00 | 0.00 | 0.00 | 1 | 1007.9 |
| 20260510032646 | 55 | 178 | 5.0 | 12.0 | 0.00 | 0.00 | 0.00 | 1 | 1007.9 |
| 20260510032547 | 55 | 134 | 5.0 | 12.0 | 0.00 | 0.00 | 0.00 | 1 | 1007.9 |
| 20260510032419 | 55 | 161 | 5.0 | 12.0 | 0.00 | 0.00 | 0.00 | 1 | 1008.0 |
| 20260510032336 | 55 | 161 | 5.0 | 12.0 | 0.00 | 0.00 | 0.00 | 1 | 1008.0 |
| 20260510032208 | 55 | 148 | 4.0 | 12.0 | 0.00 | 0.00 | 0.00 | 1 | 1008.1 |
| 20260510032130 | 55 | 188 | 5.0 | 12.0 | 0.00 | 0.00 | 0.00 | 1 | 1008.0 |
| 20260510032001 | 55 | 173 | 6.0 | 15.0 | 0.00 | 0.00 | 0.00 | 1 | 1008.0 |
| 20260510031837 | 55 | 162 | 5.0 | 15.0 | 0.00 | 0.00 | 0.00 | 1 | 1008.0 |
| 20260510031733 | 55 | 163 | 4.0 | 15.0 | 0.00 | 0.00 | 0.00 | 1 | 1008.0 |
| 20260510031654 | 55 | 159 | 3.0 | 15.0 | 0.00 | 0.00 | 0.00 | 1 | 1008.0 |
| 20260510031537 | 55 | 194 | 5.0 | 15.0 | 0.00 | 0.00 | 0.00 | 1 | 1008.0 |
| 20260510031432 | 55 | 153 | 6.0 | 15.0 | 0.00 | 0.00 | 0.00 | 1 | 1008.1 |
| 20260510031252 | 55 | 150 | 7.0 | 15.0 | 0.00 | 0.00 | 0.00 | 1 | 1008.0 |
| 20260510031035 | 55 | 172 | 6.0 | 9.0 | 0.00 | 0.00 | 0.00 | 1 | 1008.0 |
| 20260510030942 | 55 | 176 | 5.0 | 9.0 | 0.00 | 0.00 | 0.00 | 1 | 1007.8 |
| 20260510030825 | 55 | 144 | 6.0 | 9.0 | 0.00 | 0.00 | 0.00 | 1 | 1007.9 |
| 20260510030748 | 55 | 175 | 5.0 | 9.0 | 0.00 | 0.00 | 0.00 | 1 | 1007.9 |
| 20260510030711 | 55 | 180 | 4.0 | 8.0 | 0.00 | 0.00 | 0.00 | 1 | 1007.9 |
| 20260510030556 | 55 | 125 | 3.0 | 8.0 | 0.00 | 0.00 | 0.00 | 1 | 1007.9 |
| 20260510030519 | 55 | 195 | 4.0 | 8.0 | 0.00 | 0.00 | 0.00 | 1 | 1007.9 |
| 20260510030323 | 55 | 194 | 5.0 | 8.0 | 0.00 | 0.00 | 0.00 | 1 | 1007.8 |
| 20260510030224 | 55 | 215 | 5.0 | 8.0 | 0.00 | 0.00 | 0.00 | 1 | 1007.8 |
| 20260510030107 | 55 | 164 | 6.0 | 10.0 | 0.00 | 0.00 | 0.00 | 1 | 1007.9 |
| 20260510030033 | 55 | 156 | 6.0 | 9.0 | 0.00 | 0.00 | 0.00 | 1 | 1007.8 |
| 20260510025836 | 55 | 183 | 6.0 | 9.0 | 0.00 | 0.00 | 0.00 | 1 | 1007.9 |
| 20260510025739 | 55 | 158 | 4.0 | 9.0 | 0.00 | 0.00 | 0.00 | 1 | 1007.9 |
| 20260510025642 | 55 | 153 | 3.0 | 9.0 | 0.00 | 0.00 | 0.00 | 1 | 1007.9 |
| 20260510025605 | 55 | 165 | 3.0 | 9.0 | 0.00 | 0.00 | 0.00 | 1 | 1007.9 |
| 20260510025528 | 55 | 206 | 3.0 | 9.0 | 0.00 | 0.00 | 0.00 | 1 | 1007.9 |
| 20260510025400 | 55 | 147 | 3.0 | 9.0 | 0.00 | 0.00 | 0.00 | 1 | 1007.9 |
| 20260510025232 | 55 | 130 | 3.0 | 9.0 | 0.00 | 0.00 | 0.00 | 1 | 1008.0 |
| 20260510025156 | 54 | 184 | 3.0 | 9.0 | 0.00 | 0.00 | 0.00 | 1 | 1008.0 |
| 20260510025025 | 54 | 147 | 4.0 | 9.0 | 0.00 | 0.00 | 0.00 | 1 | 1008.0 |
| 20260510024941 | 55 | 158 | 5.0 | 8.0 | 0.00 | 0.00 | 0.00 | 1 | 1008.0 |
| 20260510024733 | 55 | 209 | 2.0 | 8.0 | 0.00 | 0.00 | 0.00 | 1 | 1008.1 |
| 20260510024636 | 55 | 192 | 1.0 | 8.0 | 0.00 | 0.00 | 0.00 | 1 | 1008.0 |
| 20260510024559 | 55 | 192 | 2.0 | 8.0 | 0.00 | 0.00 | 0.00 | 1 | 1008.0 |
| 20260510024522 | 55 | 192 | 3.0 | 8.0 | 0.00 | 0.00 | 0.00 | 1 | 1007.9 |
| 20260510024325 | 55 | 219 | 3.0 | 9.0 | 0.00 | 0.00 | 0.00 | 1 | 1007.9 |
| 20260510024248 | 55 | 213 | 3.0 | 9.0 | 0.00 | 0.00 | 0.00 | 1 | 1007.9 |
| 20260510024132 | 55 | 144 | 3.0 | 9.0 | 0.00 | 0.00 | 0.00 | 1 | 1007.9 |
| 20260510024057 | 55 | 188 | 3.0 | 9.0 | 0.00 | 0.00 | 0.00 | 1 | 1007.9 |
| 20260510024000 | 55 | 194 | 3.0 | 9.0 | 0.00 | 0.00 | 0.00 | 1 | 1007.9 |
| 20260510023904 | 54 | 186 | 4.0 | 11.0 | 0.00 | 0.00 | 0.00 | 1 | 1007.9 |
| 20260510023825 | 54 | 192 | 5.0 | 11.0 | 0.00 | 0.00 | 0.00 | 1 | 1008.0 |
| 20260510023629 | 54 | 151 | 4.0 | 11.0 | 0.00 | 0.00 | 0.00 | 1 | 1008.0 |
| 20260510023531 | 54 | 123 | 5.0 | 11.0 | 0.00 | 0.00 | 0.00 | 1 | 1008.0 |
| 20260510023435 | 54 | 175 | 4.0 | 11.0 | 0.00 | 0.00 | 0.00 | 1 | 1007.9 |
| 20260510023357 | 54 | 194 | 3.0 | 11.0 | 0.00 | 0.00 | 0.00 | 1 | 1008.0 |
| 20260510023259 | 54 | 206 | 4.0 | 11.0 | 0.00 | 0.00 | 0.00 | 1 | 1008.0 |
| 20260510023202 | 54 | 107 | 5.0 | 11.0 | 0.00 | 0.00 | 0.00 | 1 | 1007.9 |
| 20260510023104 | 54 | 169 | 4.0 | 11.0 | 0.00 | 0.00 | 0.00 | 1 | 1007.9 |
| 20260510023029 | 54 | 198 | 4.0 | 11.0 | 0.00 | 0.00 | 0.00 | 1 | 1007.8 |
| 20260510022831 | 54 | 165 | 5.0 | 11.0 | 0.00 | 0.00 | 0.00 | 1 | 1007.8 |
| 20260510022754 | 54 | 140 | 4.0 | 11.0 | 0.00 | 0.00 | 0.00 | 1 | 1007.8 |
| 20260510022639 | 54 | 139 | 2.0 | 11.0 | 0.00 | 0.00 | 0.00 | 1 | 1007.9 |
| 20260510022601 | 54 | 131 | 3.0 | 11.0 | 0.00 | 0.00 | 0.00 | 1 | 1007.9 |
| 20260510022432 | 54 | 149 | 7.0 | 11.0 | 0.00 | 0.00 | 0.00 | 1 | 1007.9 |
| 20260510022328 | 54 | 133 | 6.0 | 11.0 | 0.00 | 0.00 | 0.00 | 1 | 1007.9 |
| 20260510022159 | 54 | 150 | 4.0 | 11.0 | 0.00 | 0.00 | 0.00 | 1 | 1008.0 |
| 20260510022102 | 54 | 138 | 5.0 | 11.0 | 0.00 | 0.00 | 0.00 | 1 | 1008.0 |
| 20260510021925 | 54 | 167 | 5.0 | 11.0 | 0.00 | 0.00 | 0.00 | 1 | 1008.0 |
| 20260510021852 | 54 | 178 | 5.0 | 11.0 | 0.00 | 0.00 | 0.00 | 1 | 1008.1 |
| 20260510021635 | 54 | 119 | 5.0 | 11.0 | 0.00 | 0.00 | 0.00 | 1 | 1008.1 |
| 20260510021539 | 54 | 146 | 6.0 | 11.0 | 0.00 | 0.00 | 0.00 | 1 | 1008.1 |
| 20260510021441 | 54 | 151 | 7.0 | 11.0 | 0.00 | 0.00 | 0.00 | 1 | 1008.2 |
| 20260510021344 | 54 | 176 | 5.0 | 9.0 | 0.00 | 0.00 | 0.00 | 1 | 1008.2 |
| 20260510021238 | 54 | 171 | 4.0 | 7.0 | 0.00 | 0.00 | 0.00 | 1 | 1008.2 |
| 20260510021201 | 54 | 169 | 4.0 | 10.0 | 0.00 | 0.00 | 0.00 | 1 | 1008.2 |
| 20260510021105 | 54 | 118 | 3.0 | 10.0 | 0.00 | 0.00 | 0.00 | 1 | 1008.2 |
| 20260510021028 | 54 | 167 | 3.0 | 10.0 | 0.00 | 0.00 | 0.00 | 1 | 1008.1 |
| 20260510020836 | 54 | 157 | 2.0 | 10.0 | 0.00 | 0.00 | 0.00 | 1 | 1008.1 |
| 20260510020738 | 53 | 175 | 2.0 | 10.0 | 0.00 | 0.00 | 0.00 | 1 | 1008.1 |
| 20260510020624 | 53 | 125 | 3.0 | 10.0 | 0.00 | 0.00 | 0.00 | 1 | 1008.2 |
| 20260510020547 | 53 | 161 | 5.0 | 10.0 | 0.00 | 0.00 | 0.00 | 1 | 1008.2 |
| 20260510020330 | 53 | 167 | 3.0 | 8.0 | 0.00 | 0.00 | 0.00 | 1 | 1008.2 |
| 20260510020253 | 53 | 142 | 4.0 | 8.0 | 0.00 | 0.00 | 0.00 | 1 | 1008.2 |
| 20260510020138 | 53 | 148 | 5.0 | 8.0 | 0.00 | 0.00 | 0.00 | 1 | 1008.2 |
| 20260510020044 | 53 | 158 | 4.0 | 8.0 | 0.00 | 0.00 | 0.00 | 1 | 1008.2 |
| 20260510015939 | 52 | 135 | 3.0 | 8.0 | 0.00 | 0.00 | 0.00 | 1 | 1008.2 |
| 20260510015841 | 52 | 160 | 4.0 | 8.0 | 0.00 | 0.00 | 0.00 | 1 | 1008.3 |
| 20260510015756 | 52 | 146 | 5.0 | 8.0 | 0.00 | 0.00 | 0.00 | 1 | 1008.3 |
| 20260510015606 | 52 | 146 | 5.0 | 8.0 | 0.00 | 0.00 | 0.00 | 1 | 1008.3 |
| 20260510015530 | 52 | 136 | 4.0 | 6.0 | 0.00 | 0.00 | 0.00 | 1 | 1008.3 |
| 20260510015332 | 52 | 140 | 2.0 | 4.0 | 0.00 | 0.00 | 0.00 | 1 | 1008.3 |
| 20260510015255 | 52 | 135 | 2.0 | 4.0 | 0.00 | 0.00 | 0.00 | 1 | 1008.3 |
| 20260510015140 | 52 | 136 | 2.0 | 4.0 | 0.00 | 0.00 | 0.00 | 1 | 1008.3 |
| 20260510015049 | 52 | 136 | 2.0 | 4.0 | 0.00 | 0.00 | 0.00 | 1 | 1008.3 |
| 20260510014941 | 52 | 137 | 0.0 | 3.0 | 0.00 | 0.00 | 0.00 | 1 | 1008.3 |
| 20260510014904 | 52 | 153 | 0.0 | 3.0 | 0.00 | 0.00 | 0.00 | 1 | 1008.3 |
| 20260510014808 | 51 | 153 | 0.0 | 3.0 | 0.00 | 0.00 | 0.00 | 1 | 1008.3 |
| 20260510014730 | 51 | 153 | 0.0 | 3.0 | 0.00 | 0.00 | 0.00 | 1 | 1008.4 |
| 20260510014523 | 51 | 153 | 2.0 | 3.0 | 0.00 | 0.00 | 0.00 | 1 | 1008.4 |
| 20260510014425 | 51 | 129 | 2.0 | 3.0 | 0.00 | 0.00 | 0.00 | 1 | 1008.4 |
| 20260510014340 | 51 | 221 | 1.0 | 3.0 | 0.00 | 0.00 | 0.00 | 1 | 1008.4 |
| 20260510014241 | 51 | 221 | 1.0 | 3.0 | 0.00 | 0.00 | 0.00 | 1 | 1008.4 |
| 20260510014143 | 51 | 164 | 1.0 | 3.0 | 0.00 | 0.00 | 0.00 | 1 | 1008.4 |
| 20260510014104 | 51 | 164 | 2.0 | 3.0 | 0.00 | 0.00 | 0.00 | 1 | 1008.4 |
| 20260510014008 | 51 | 184 | 2.0 | 3.0 | 0.00 | 0.00 | 0.00 | 1 | 1008.4 |
| 20260510013930 | 51 | 185 | 2.0 | 3.0 | 0.00 | 0.00 | 0.00 | 1 | 1008.4 |
| 20260510013750 | 51 | 200 | 2.0 | 3.0 | 0.00 | 0.00 | 0.00 | 1 | 1008.4 |
| 20260510013652 | 51 | 133 | 2.0 | 3.0 | 0.00 | 0.00 | 0.00 | 1 | 1008.3 |
| 20260510013534 | 51 | 126 | 2.0 | 3.0 | 0.00 | 0.00 | 0.00 | 1 | 1008.3 |
| 20260510013458 | 51 | 140 | 1.0 | 3.0 | 0.00 | 0.00 | 0.00 | 1 | 1008.3 |
| 20260510013420 | 51 | 140 | 1.0 | 3.0 | 0.00 | 0.00 | 0.00 | 1 | 1008.4 |
| 20260510013222 | 51 | 211 | 0.0 | 1.0 | 0.00 | 0.00 | 0.00 | 1 | 1008.4 |
| 20260510013146 | 51 | 211 | 0.0 | 1.0 | 0.00 | 0.00 | 0.00 | 1 | 1008.4 |
| 20260510013034 | 51 | 211 | 0.0 | 1.0 | 0.00 | 0.00 | 0.00 | 1 | 1008.4 |
| 20260510012958 | 51 | 211 | 0.0 | 1.0 | 0.00 | 0.00 | 0.00 | 1 | 1008.4 |
| 20260510012915 | 51 | 211 | 0.0 | 1.0 | 0.00 | 0.00 | 0.00 | 1 | 1008.4 |
| 20260510012744 | 51 | 211 | 0.0 | 0.0 | 0.00 | 0.00 | 0.00 | 1 | 1008.5 |
| 20260510012647 | 51 | 211 | 0.0 | 0.0 | 0.00 | 0.00 | 0.00 | 1 | 1008.5 |
| 20260510012530 | 51 | 211 | 0.0 | 0.0 | 0.00 | 0.00 | 0.00 | 1 | 1008.5 |
| 20260510012435 | 51 | 211 | 0.0 | 0.0 | 0.00 | 0.00 | 0.00 | 1 | 1008.5 |
| 20260510012337 | 51 | 211 | 0.0 | 0.0 | 0.00 | 0.00 | 0.00 | 1 | 1008.6 |
| 20260510012301 | 51 | 211 | 0.0 | 0.0 | 0.00 | 0.00 | 0.00 | 1 | 1008.6 |
| 20260510012209 | 51 | 211 | 0.0 | 0.0 | 0.00 | 0.00 | 0.00 | 1 | 1008.6 |
| 20260510012133 | 51 | 211 | 0.0 | 0.0 | 0.00 | 0.00 | 0.00 | 1 | 1008.6 |
| 20260510011936 | 51 | 211 | 0.0 | 0.0 | 0.00 | 0.00 | 0.00 | 1 | 1008.5 |
| 20260510011839 | 51 | 211 | 0.0 | 0.0 | 0.00 | 0.00 | 0.00 | 1 | 1008.6 |
| 20260510011726 | 51 | 211 | 0.0 | 0.0 | 0.00 | 0.00 | 0.00 | 1 | 1008.6 |
| 20260510011647 | 51 | 211 | 0.0 | 0.0 | 0.00 | 0.00 | 0.00 | 1 | 1008.6 |
| 20260510011522 | 51 | 211 | 0.0 | 0.0 | 0.00 | 0.00 | 0.00 | 1 | 1008.5 |
| 20260510011427 | 51 | 211 | 0.0 | 0.0 | 0.00 | 0.00 | 0.00 | 1 | 1008.5 |
| 20260510011332 | 51 | 211 | 0.0 | 1.0 | 0.00 | 0.00 | 0.00 | 1 | 1008.5 |
| 20260510011256 | 51 | 211 | 0.0 | 1.0 | 0.00 | 0.00 | 0.00 | 1 | 1008.5 |
| 20260510011138 | 51 | 211 | 0.0 | 1.0 | 0.00 | 0.00 | 0.00 | 1 | 1008.5 |
| 20260510011102 | 51 | 211 | 0.0 | 1.0 | 0.00 | 0.00 | 0.00 | 1 | 1008.5 |
| 20260510011016 | 51 | 211 | 0.0 | 1.0 | 0.00 | 0.00 | 0.00 | 1 | 1008.6 |
| 20260510010828 | 51 | 211 | 0.0 | 1.0 | 0.00 | 0.00 | 0.00 | 1 | 1008.6 |
| 20260510010741 | 51 | 211 | 0.0 | 1.0 | 0.00 | 0.00 | 0.00 | 1 | 1008.6 |
| 20260510010645 | 51 | 211 | 0.0 | 1.0 | 0.00 | 0.00 | 0.00 | 1 | 1008.6 |
| 20260510010549 | 51 | 211 | 0.0 | 1.0 | 0.00 | 0.00 | 0.00 | 1 | 1008.6 |
| 20260510010434 | 51 | 211 | 0.0 | 1.0 | 0.00 | 0.00 | 0.00 | 1 | 1008.6 |
| 20260510010339 | 51 | 211 | 0.0 | 1.0 | 0.00 | 0.00 | 0.00 | 1 | 1008.6 |
| 20260510010240 | 51 | 211 | 0.0 | 1.0 | 0.00 | 0.00 | 0.00 | 1 | 1008.6 |
| 20260510010156 | 51 | 211 | 0.0 | 1.0 | 0.00 | 0.00 | 0.00 | 1 | 1008.6 |
| 20260510010119 | 51 | 211 | 0.0 | 1.0 | 0.00 | 0.00 | 0.00 | 1 | 1008.6 |
| 20260510010041 | 51 | 211 | 0.0 | 1.0 | 0.00 | 0.00 | 0.00 | 1 | 1008.5 |
| 20260510005904 | 51 | 211 | 0.0 | 1.0 | 0.00 | 0.00 | 0.00 | 1 | 1008.6 |
| 20260510005825 | 51 | 211 | 0.0 | 1.0 | 0.00 | 0.00 | 0.00 | 1 | 1008.5 |
| 20260510005637 | 51 | 211 | 0.0 | 1.0 | 0.00 | 0.00 | 0.00 | 1 | 1008.6 |
| 20260510005535 | 51 | 211 | 0.0 | 1.0 | 0.00 | 0.00 | 0.00 | 1 | 1008.6 |
| 20260510005459 | 51 | 211 | 0.0 | 1.0 | 0.00 | 0.00 | 0.00 | 1 | 1008.6 |
| 20260510005401 | 51 | 211 | 0.0 | 0.0 | 0.00 | 0.00 | 0.00 | 1 | 1008.5 |
| 20260510005306 | 51 | 211 | 0.0 | 0.0 | 0.00 | 0.00 | 0.00 | 1 | 1008.5 |
| 20260510005226 | 51 | 211 | 0.0 | 0.0 | 0.00 | 0.00 | 0.00 | 1 | 1008.5 |
| 20260510005028 | 51 | 211 | 0.0 | 0.0 | 0.00 | 0.00 | 0.00 | 1 | 1008.6 |
| 20260510004951 | 51 | 211 | 0.0 | 0.0 | 0.00 | 0.00 | 0.00 | 1 | 1008.6 |
| 20260510004836 | 51 | 211 | 0.0 | 0.0 | 0.00 | 0.00 | 0.00 | 1 | 1008.6 |
| 20260510004737 | 51 | 211 | 0.0 | 0.0 | 0.00 | 0.00 | 0.00 | 1 | 1008.7 |
| 20260510004518 | 51 | 211 | 0.0 | 0.0 | 0.00 | 0.00 | 0.00 | 1 | 1008.8 |
| 20260510004334 | 51 | 211 | 0.0 | 0.0 | 0.00 | 0.00 | 0.00 | 1 | 1008.8 |
| 20260510004236 | 51 | 211 | 0.0 | 0.0 | 0.00 | 0.00 | 0.00 | 1 | 1008.8 |
| 20260510004140 | 51 | 211 | 0.0 | 0.0 | 0.00 | 0.00 | 0.00 | 1 | 1008.8 |
| 20260510004102 | 51 | 211 | 0.0 | 0.0 | 0.00 | 0.00 | 0.00 | 1 | 1008.8 |
| 20260510003933 | 51 | 211 | 0.0 | 0.0 | 0.00 | 0.00 | 0.00 | 1 | 1008.7 |
| 20260510003816 | 51 | 211 | 0.0 | 0.0 | 0.00 | 0.00 | 0.00 | 1 | 1008.7 |
| 20260510003738 | 51 | 211 | 0.0 | 0.0 | 0.00 | 0.00 | 0.00 | 1 | 1008.6 |
| 20260510003610 | 51 | 211 | 0.0 | 0.0 | 0.00 | 0.00 | 0.00 | 1 | 1008.6 |
| 20260510003526 | 51 | 211 | 0.0 | 0.0 | 0.00 | 0.00 | 0.00 | 1 | 1008.6 |
| 20260510003340 | 51 | 211 | 0.0 | 0.0 | 0.00 | 0.00 | 0.00 | 1 | 1008.5 |
| 20260510003304 | 51 | 211 | 0.0 | 0.0 | 0.00 | 0.00 | 0.00 | 1 | 1008.5 |
| 20260510003218 | 51 | 211 | 0.0 | 0.0 | 0.00 | 0.00 | 0.00 | 1 | 1008.6 |
| 20260510003030 | 51 | 211 | 0.0 | 0.0 | 0.00 | 0.00 | 0.00 | 1 | 1008.6 |
| 20260510002925 | 51 | 211 | 0.0 | 0.0 | 0.00 | 0.00 | 0.00 | 1 | 1008.6 |
| 20260510002849 | 51 | 211 | 0.0 | 0.0 | 0.00 | 0.00 | 0.00 | 1 | 1008.6 |
| 20260510002723 | 51 | 211 | 0.0 | 0.0 | 0.00 | 0.00 | 0.00 | 1 | 1008.6 |
| 20260510002525 | 51 | 211 | 0.0 | 0.0 | 0.00 | 0.00 | 0.00 | 1 | 1008.6 |
| 20260510002433 | 51 | 211 | 0.0 | 0.0 | 0.00 | 0.00 | 0.00 | 1 | 1008.6 |
| 20260510002337 | 51 | 211 | 0.0 | 0.0 | 0.00 | 0.00 | 0.00 | 1 | 1008.6 |
| 20260510002301 | 51 | 211 | 0.0 | 0.0 | 0.00 | 0.00 | 0.00 | 1 | 1008.6 |
| 20260510002223 | 51 | 211 | 0.0 | 0.0 | 0.00 | 0.00 | 0.00 | 1 | 1008.6 |
| 20260510002028 | 51 | 211 | 0.0 | 0.0 | 0.00 | 0.00 | 0.00 | 1 | 1008.7 |
| 20260510001932 | 51 | 211 | 0.0 | 0.0 | 0.00 | 0.00 | 0.00 | 1 | 1008.7 |
| 20260510001835 | 51 | 211 | 0.0 | 0.0 | 0.00 | 0.00 | 0.00 | 1 | 1008.7 |
| 20260510001758 | 51 | 211 | 0.0 | 0.0 | 0.00 | 0.00 | 0.00 | 1 | 1008.7 |
| 20260510001720 | 51 | 211 | 0.0 | 0.0 | 0.00 | 0.00 | 0.00 | 1 | 1008.7 |
| 20260510001604 | 51 | 211 | 0.0 | 0.0 | 0.00 | 0.00 | 0.00 | 1 | 1008.7 |
| 20260510001526 | 51 | 211 | 0.0 | 0.0 | 0.00 | 0.00 | 0.00 | 1 | 1008.7 |
| 20260510001336 | 51 | 211 | 0.0 | 0.0 | 0.00 | 0.00 | 0.00 | 1 | 1008.7 |
| 20260510001238 | 51 | 211 | 0.0 | 0.0 | 0.00 | 0.00 | 0.00 | 1 | 1008.7 |
| 20260510001122 | 51 | 211 | 0.0 | 0.0 | 0.00 | 0.00 | 0.00 | 1 | 1008.7 |
| 20260510001046 | 51 | 211 | 0.0 | 0.0 | 0.00 | 0.00 | 0.00 | 1 | 1008.7 |
| 20260510000942 | 51 | 211 | 0.0 | 0.0 | 0.00 | 0.00 | 0.00 | 1 | 1008.6 |
| 20260510000827 | 51 | 211 | 0.0 | 0.0 | 0.00 | 0.00 | 0.00 | 1 | 1008.6 |
| 20260510000726 | 51 | 211 | 0.0 | 0.0 | 0.00 | 0.00 | 0.00 | 1 | 1008.6 |
| 20260510000654 | 51 | 211 | 0.0 | 0.0 | 0.00 | 0.00 | 0.00 | 1 | 1008.6 |
| 20260510000538 | 51 | 211 | 0.0 | 0.0 | 0.00 | 0.00 | 0.00 | 1 | 1008.5 |
| 20260510000502 | 51 | 211 | 0.0 | 0.0 | 0.00 | 0.00 | 0.00 | 1 | 1008.5 |
| 20260510000418 | 51 | 211 | 0.0 | 0.0 | 0.00 | 0.00 | 0.00 | 1 | 1008.5 |
| 20260510000229 | 51 | 211 | 0.0 | 0.0 | 0.00 | 0.00 | 0.00 | 1 | 1008.5 |
| 20260510000123 | 52 | 211 | 0.0 | 0.0 | 0.00 | 0.00 | 0.00 | 1 | 1008.5 |
| 20260510000047 | 52 | 211 | 0.0 | 0.0 | 0.00 | 0.00 | 0.00 | 1 | 1008.5 |
| 20260510000004 | 52 | 211 | 0.0 | 0.0 | 0.00 | 0.00 | 0.00 | 1 | 1008.5 |
| 20260509235926 | 52 | 211 | 0.0 | 0.0 | 0.00 | 0.00 | 0.00 | 1 | 1008.5 |
| 20260509235740 | 52 | 211 | 0.0 | 0.0 | 0.00 | 0.00 | 0.00 | 1 | 1008.5 |
| 20260509235616 | 52 | 211 | 0.0 | 0.0 | 0.00 | 0.00 | 0.00 | 1 | 1008.5 |
| 20260509235529 | 52 | 211 | 0.0 | 0.0 | 0.00 | 0.00 | 0.00 | 1 | 1008.5 |
| 20260509235450 | 52 | 211 | 0.0 | 0.0 | 0.00 | 0.00 | 0.00 | 1 | 1008.5 |
| 20260509235353 | 52 | 211 | 0.0 | 1.0 | 0.00 | 0.00 | 0.00 | 1 | 1008.5 |
| 20260509235238 | 52 | 211 | 0.0 | 1.0 | 0.00 | 0.00 | 0.00 | 1 | 1008.5 |
| 20260509235200 | 52 | 211 | 0.0 | 2.0 | 0.00 | 0.00 | 0.00 | 1 | 1008.5 |
| 20260509235022 | 52 | 211 | 0.0 | 2.0 | 0.00 | 0.00 | 0.00 | 1 | 1008.5 |
| 20260509234956 | 52 | 211 | 0.0 | 2.0 | 0.00 | 0.00 | 0.00 | 1 | 1008.5 |
| 20260509234916 | 52 | 211 | 0.0 | 2.0 | 0.00 | 0.00 | 0.00 | 1 | 1008.5 |
| 20260509234726 | 52 | 211 | 0.0 | 2.0 | 0.00 | 0.00 | 0.00 | 1 | 1008.5 |
| 20260509234643 | 52 | 211 | 0.0 | 2.0 | 0.00 | 0.00 | 0.00 | 1 | 1008.5 |
| 20260509234501 | 52 | 211 | 0.0 | 2.0 | 0.00 | 0.00 | 0.00 | 1 | 1008.5 |
| 20260509234345 | 52 | 211 | 0.0 | 2.0 | 0.00 | 0.00 | 0.00 | 1 | 1008.5 |
| 20260509234238 | 52 | 211 | 0.0 | 2.0 | 0.00 | 0.00 | 0.00 | 1 | 1008.4 |
| 20260509234202 | 52 | 211 | 0.0 | 2.0 | 0.00 | 0.00 | 0.00 | 1 | 1008.4 |
| 20260509234106 | 52 | 211 | 0.0 | 2.0 | 0.00 | 0.00 | 0.00 | 1 | 1008.4 |
| 20260509234028 | 52 | 212 | 0.0 | 2.0 | 0.00 | 0.00 | 0.00 | 1 | 1008.4 |
| 20260509233837 | 52 | 140 | 0.0 | 2.0 | 0.00 | 0.00 | 0.00 | 1 | 1008.4 |
| 20260509233739 | 52 | 140 | 1.0 | 2.0 | 0.00 | 0.00 | 0.00 | 1 | 1008.5 |
| 20260509233623 | 52 | 140 | 1.0 | 2.0 | 0.00 | 0.00 | 0.00 | 1 | 1008.4 |
| 20260509233547 | 52 | 148 | 0.0 | 2.0 | 0.00 | 0.00 | 0.00 | 1 | 1008.4 |
| 20260509233452 | 52 | 148 | 1.0 | 2.0 | 0.00 | 0.00 | 0.00 | 1 | 1008.4 |
| 20260509233353 | 52 | 148 | 1.0 | 2.0 | 0.00 | 0.00 | 0.00 | 1 | 1008.5 |
| 20260509233136 | 52 | 175 | 1.0 | 3.0 | 0.00 | 0.00 | 0.00 | 1 | 1008.4 |
| 20260509233039 | 52 | 173 | 1.0 | 3.0 | 0.00 | 0.00 | 0.00 | 1 | 1008.5 |
| 20260509232928 | 52 | 205 | 0.0 | 3.0 | 0.00 | 0.00 | 0.00 | 1 | 1008.4 |
| 20260509232850 | 52 | 205 | 0.0 | 3.0 | 0.00 | 0.00 | 0.00 | 1 | 1008.4 |
| 20260509232720 | 52 | 205 | 0.0 | 4.0 | 0.00 | 0.00 | 0.00 | 1 | 1008.5 |
| 20260509232634 | 52 | 205 | 0.0 | 4.0 | 0.00 | 0.00 | 0.00 | 1 | 1008.5 |
| 20260509232503 | 52 | 205 | 1.0 | 4.0 | 0.00 | 0.00 | 0.00 | 1 | 1008.5 |
| 20260509232404 | 52 | 205 | 2.0 | 4.0 | 0.00 | 0.00 | 0.00 | 1 | 1008.5 |
| 20260509232318 | 52 | 205 | 2.0 | 4.0 | 0.00 | 0.00 | 0.00 | 1 | 1008.5 |
| 20260509232130 | 52 | 206 | 2.0 | 4.0 | 0.00 | 0.00 | 0.00 | 1 | 1008.5 |
| 20260509232047 | 52 | 201 | 2.0 | 4.0 | 0.00 | 0.00 | 0.00 | 1 | 1008.5 |
| 20260509231835 | 52 | 215 | 2.0 | 4.0 | 0.00 | 0.00 | 0.00 | 1 | 1008.4 |
| 20260509231753 | 52 | 230 | 1.0 | 4.0 | 0.00 | 0.00 | 0.00 | 1 | 1008.4 |
| 20260509231720 | 52 | 223 | 1.0 | 4.0 | 0.00 | 0.00 | 0.00 | 1 | 1008.4 |
| 20260509231514 | 52 | 202 | 2.0 | 5.0 | 0.00 | 0.00 | 0.00 | 1 | 1008.4 |
| 20260509231428 | 52 | 210 | 0.0 | 5.0 | 0.00 | 0.00 | 0.00 | 1 | 1008.4 |
| 20260509231331 | 52 | 225 | 0.0 | 5.0 | 0.00 | 0.00 | 0.00 | 1 | 1008.3 |
| 20260509231254 | 52 | 225 | 1.0 | 5.0 | 0.00 | 0.00 | 0.00 | 1 | 1008.3 |
| 20260509231216 | 52 | 225 | 1.0 | 5.0 | 0.00 | 0.00 | 0.00 | 1 | 1008.4 |
| 20260509231040 | 52 | 250 | 2.0 | 5.0 | 0.00 | 0.00 | 0.00 | 1 | 1008.4 |
| 20260509230942 | 52 | 236 | 3.0 | 5.0 | 0.00 | 0.00 | 0.00 | 1 | 1008.3 |
| 20260509230831 | 52 | 225 | 3.0 | 5.0 | 0.00 | 0.00 | 0.00 | 1 | 1008.3 |
| 20260509230754 | 52 | 257 | 3.0 | 6.0 | 0.00 | 0.00 | 0.00 | 1 | 1008.3 |
| 20260509230617 | 52 | 190 | 3.0 | 5.0 | 0.00 | 0.00 | 0.00 | 1 | 1008.3 |
| 20260509230541 | 52 | 169 | 3.0 | 5.0 | 0.00 | 0.00 | 0.00 | 1 | 1008.3 |
| 20260509230413 | 52 | 192 | 3.0 | 6.0 | 0.00 | 0.00 | 0.00 | 1 | 1008.3 |
| 20260509230336 | 51 | 171 | 2.0 | 6.0 | 0.00 | 0.00 | 0.00 | 1 | 1008.3 |
| 20260509230139 | 51 | 176 | 3.0 | 6.0 | 0.00 | 0.00 | 0.00 | 1 | 1008.4 |
| 20260509230041 | 51 | 182 | 2.0 | 6.0 | 0.00 | 0.00 | 0.00 | 1 | 1008.4 |
| 20260509225924 | 51 | 167 | 3.0 | 7.0 | 0.00 | 0.00 | 0.00 | 1 | 1008.4 |
| 20260509225848 | 51 | 134 | 3.0 | 7.0 | 0.00 | 0.00 | 0.00 | 1 | 1008.4 |
| 20260509225728 | 51 | 166 | 4.0 | 7.0 | 0.00 | 0.00 | 0.00 | 1 | 1008.4 |
| 20260509225634 | 51 | 123 | 3.0 | 7.0 | 0.00 | 0.00 | 0.00 | 1 | 1008.4 |
| 20260509225534 | 51 | 190 | 3.0 | 7.0 | 0.00 | 0.00 | 0.00 | 1 | 1008.5 |
| 20260509225459 | 51 | 160 | 3.0 | 7.0 | 0.00 | 0.00 | 0.00 | 1 | 1008.5 |
| 20260509225341 | 51 | 195 | 3.0 | 7.0 | 0.00 | 0.00 | 0.00 | 1 | 1008.5 |
| 20260509225306 | 51 | 185 | 4.0 | 7.0 | 0.00 | 0.00 | 0.00 | 1 | 1008.5 |
| 20260509225137 | 51 | 212 | 5.0 | 7.0 | 0.00 | 0.00 | 0.00 | 1 | 1008.4 |
| 20260509225100 | 51 | 207 | 5.0 | 7.0 | 0.00 | 0.00 | 0.00 | 1 | 1008.4 |
| 20260509225005 | 51 | 196 | 4.0 | 6.0 | 0.00 | 0.00 | 0.00 | 1 | 1008.5 |
| 20260509224931 | 51 | 178 | 4.0 | 6.0 | 0.00 | 0.00 | 0.00 | 1 | 1008.5 |
| 20260509224735 | 51 | 178 | 2.0 | 5.0 | 0.00 | 0.00 | 0.00 | 1 | 1008.5 |
| 20260509224638 | 51 | 158 | 1.0 | 5.0 | 0.00 | 0.00 | 0.00 | 1 | 1008.5 |
| 20260509224533 | 51 | 158 | 1.0 | 5.0 | 0.00 | 0.00 | 0.00 | 1 | 1008.5 |
| 20260509224457 | 51 | 158 | 1.0 | 5.0 | 0.00 | 0.00 | 0.00 | 1 | 1008.5 |
| 20260509224340 | 51 | 158 | 1.0 | 5.0 | 0.00 | 0.00 | 0.00 | 1 | 1008.5 |
| 20260509224302 | 51 | 158 | 1.0 | 5.0 | 0.00 | 0.00 | 0.00 | 1 | 1008.5 |
| 20260509224216 | 51 | 158 | 1.0 | 5.0 | 0.00 | 0.00 | 0.00 | 1 | 1008.5 |
| 20260509224040 | 51 | 147 | 3.0 | 5.0 | 0.00 | 0.00 | 0.00 | 1 | 1008.6 |
| 20260509224005 | 51 | 184 | 3.0 | 5.0 | 0.00 | 0.00 | 0.00 | 1 | 1008.6 |
| 20260509223918 | 51 | 189 | 3.0 | 5.0 | 0.00 | 0.00 | 0.00 | 1 | 1008.6 |
| 20260509223730 | 51 | 158 | 3.0 | 7.0 | 0.00 | 0.00 | 0.00 | 1 | 1008.6 |
| 20260509223624 | 51 | 202 | 4.0 | 7.0 | 0.00 | 0.00 | 0.00 | 1 | 1008.6 |
| 20260509223548 | 51 | 180 | 4.0 | 7.0 | 0.00 | 0.00 | 0.00 | 1 | 1008.6 |
| 20260509223423 | 51 | 178 | 3.0 | 7.0 | 0.00 | 0.00 | 0.00 | 1 | 1008.6 |
| 20260509223339 | 51 | 159 | 2.0 | 7.0 | 0.00 | 0.00 | 0.00 | 1 | 1008.7 |
| 20260509223247 | 51 | 153 | 1.0 | 7.0 | 0.00 | 0.00 | 0.00 | 1 | 1008.7 |
| 20260509223129 | 51 | 186 | 3.0 | 7.0 | 0.00 | 0.00 | 0.00 | 1 | 1008.8 |
| 20260509223054 | 51 | 173 | 3.0 | 7.0 | 0.00 | 0.00 | 0.00 | 1 | 1008.8 |
| 20260509223009 | 51 | 117 | 3.0 | 6.0 | 0.00 | 0.00 | 0.00 | 1 | 1008.8 |
| 20260509222746 | 51 | 196 | 3.0 | 5.0 | 0.00 | 0.00 | 0.00 | 1 | 1008.8 |
| 20260509222649 | 51 | 191 | 3.0 | 5.0 | 0.00 | 0.00 | 0.00 | 1 | 1008.8 |
| 20260509222533 | 51 | 190 | 3.0 | 6.0 | 0.00 | 0.00 | 0.00 | 1 | 1008.8 |
| 20260509222456 | 51 | 151 | 3.0 | 5.0 | 0.00 | 0.00 | 0.00 | 1 | 1008.8 |
| 20260509222414 | 51 | 148 | 3.0 | 5.0 | 0.00 | 0.00 | 0.00 | 1 | 1008.8 |
| 20260509222244 | 51 | 174 | 3.0 | 5.0 | 0.00 | 0.00 | 0.00 | 1 | 1008.8 |
| 20260509222146 | 51 | 195 | 3.0 | 5.0 | 0.00 | 0.00 | 0.00 | 1 | 1008.8 |
| 20260509222113 | 51 | 175 | 3.0 | 5.0 | 0.00 | 0.00 | 0.00 | 1 | 1008.9 |
| 20260509221957 | 51 | 193 | 3.0 | 5.0 | 0.00 | 0.00 | 0.00 | 1 | 1008.9 |
| 20260509221839 | 51 | 194 | 3.0 | 5.0 | 0.00 | 0.00 | 0.00 | 1 | 1008.8 |
| 20260509221742 | 51 | 167 | 3.0 | 5.0 | 0.00 | 0.00 | 0.00 | 1 | 1008.9 |
| 20260509221704 | 51 | 184 | 2.0 | 7.0 | 0.00 | 0.00 | 0.00 | 1 | 1008.9 |
| 20260509221626 | 51 | 153 | 3.0 | 7.0 | 0.00 | 0.00 | 0.00 | 1 | 1008.9 |
| 20260509221510 | 51 | 153 | 3.0 | 7.0 | 0.00 | 0.00 | 0.00 | 1 | 1008.9 |
| 20260509221432 | 51 | 153 | 3.0 | 7.0 | 0.00 | 0.00 | 0.00 | 1 | 1008.9 |
| 20260509221235 | 51 | 180 | 3.0 | 7.0 | 0.00 | 0.00 | 0.00 | 1 | 1009.0 |
| 20260509221137 | 51 | 185 | 4.0 | 7.0 | 0.00 | 0.00 | 0.00 | 1 | 1008.9 |
| 20260509221027 | 51 | 146 | 4.0 | 7.0 | 0.00 | 0.00 | 0.00 | 1 | 1008.9 |
| 20260509220949 | 51 | 151 | 4.0 | 7.0 | 0.00 | 0.00 | 0.00 | 1 | 1009.0 |
| 20260509220731 | 51 | 156 | 4.0 | 7.0 | 0.00 | 0.00 | 0.00 | 1 | 1009.0 |
| 20260509220644 | 51 | 182 | 4.0 | 7.0 | 0.00 | 0.00 | 0.00 | 1 | 1009.0 |
| 20260509220549 | 51 | 199 | 4.0 | 8.0 | 0.00 | 0.00 | 0.00 | 1 | 1009.0 |
| 20260509220448 | 51 | 150 | 4.0 | 8.0 | 0.00 | 0.00 | 0.00 | 1 | 1009.0 |
| 20260509220352 | 51 | 160 | 4.0 | 8.0 | 0.00 | 0.00 | 0.00 | 1 | 1009.0 |
| 20260509220236 | 51 | 151 | 4.0 | 8.0 | 0.00 | 0.00 | 0.00 | 1 | 1009.0 |
| 20260509220200 | 51 | 159 | 4.0 | 8.0 | 0.00 | 0.00 | 0.00 | 1 | 1009.0 |
| 20260509220120 | 51 | 125 | 4.0 | 8.0 | 0.00 | 0.00 | 0.00 | 1 | 1009.0 |
| 20260509220021 | 51 | 202 | 4.0 | 8.0 | 0.00 | 0.00 | 0.00 | 1 | 1009.0 |
| 20260509215944 | 51 | 134 | 4.0 | 8.0 | 0.00 | 0.00 | 0.00 | 1 | 1009.0 |
| 20260509215726 | 51 | 194 | 4.0 | 9.0 | 0.00 | 0.00 | 0.00 | 1 | 1009.0 |
| 20260509215650 | 51 | 169 | 4.0 | 10.0 | 0.00 | 0.00 | 0.00 | 1 | 1009.0 |
| 20260509215533 | 51 | 131 | 3.0 | 10.0 | 0.00 | 0.00 | 0.00 | 1 | 1009.0 |
| 20260509215457 | 51 | 142 | 3.0 | 10.0 | 0.00 | 0.00 | 0.00 | 1 | 1009.0 |
| 20260509215420 | 51 | 193 | 4.0 | 10.0 | 0.00 | 0.00 | 0.00 | 1 | 1009.0 |
| 20260509215241 | 51 | 156 | 6.0 | 10.0 | 0.00 | 0.00 | 0.00 | 1 | 1009.0 |
| 20260509215145 | 52 | 146 | 7.0 | 10.0 | 0.00 | 0.00 | 0.00 | 1 | 1009.0 |
| 20260509215053 | 52 | 182 | 6.0 | 10.0 | 0.00 | 0.00 | 0.00 | 1 | 1009.0 |
| 20260509215015 | 52 | 163 | 6.0 | 10.0 | 0.00 | 0.00 | 0.00 | 1 | 1008.9 |
| 20260509214820 | 52 | 167 | 5.0 | 11.0 | 0.00 | 0.00 | 0.00 | 1 | 1009.0 |
| 20260509214733 | 52 | 184 | 4.0 | 8.0 | 0.00 | 0.00 | 0.00 | 1 | 1009.0 |
| 20260509214636 | 52 | 156 | 3.0 | 5.0 | 0.00 | 0.00 | 0.00 | 1 | 1009.0 |
| 20260509214557 | 52 | 237 | 3.0 | 9.0 | 0.00 | 0.00 | 0.00 | 1 | 1009.0 |
| 20260509214519 | 52 | 128 | 2.0 | 9.0 | 0.00 | 0.00 | 0.00 | 1 | 1009.0 |
| 20260509214401 | 52 | 159 | 2.0 | 9.0 | 0.00 | 0.00 | 0.00 | 1 | 1009.1 |
| 20260509214244 | 52 | 156 | 3.0 | 9.0 | 0.00 | 0.00 | 0.00 | 1 | 1009.1 |
| 20260509214207 | 52 | 195 | 2.0 | 9.0 | 0.00 | 0.00 | 0.00 | 1 | 1009.0 |
| 20260509214115 | 52 | 149 | 2.0 | 9.0 | 0.00 | 0.00 | 0.00 | 1 | 1009.0 |
| 20260509214038 | 52 | 238 | 2.0 | 9.0 | 0.00 | 0.00 | 0.00 | 1 | 1009.0 |
| 20260509213910 | 52 | 126 | 4.0 | 9.0 | 0.00 | 0.00 | 0.00 | 1 | 1009.1 |
| 20260509213803 | 52 | 178 | 5.0 | 9.0 | 0.00 | 0.00 | 0.00 | 1 | 1009.0 |
| 20260509213613 | 52 | 166 | 5.0 | 8.0 | 0.00 | 0.00 | 0.00 | 1 | 1009.1 |
| 20260509213515 | 52 | 204 | 5.0 | 8.0 | 0.00 | 0.00 | 0.00 | 1 | 1009.1 |
| 20260509213326 | 52 | 175 | 4.0 | 10.0 | 0.00 | 0.00 | 0.00 | 1 | 1009.1 |
| 20260509213240 | 52 | 168 | 5.0 | 10.0 | 0.00 | 0.00 | 0.00 | 1 | 1009.1 |
| 20260509213144 | 52 | 176 | 5.0 | 10.0 | 0.00 | 0.00 | 0.00 | 1 | 1009.1 |
| 20260509213048 | 52 | 169 | 5.0 | 10.0 | 0.00 | 0.00 | 0.00 | 1 | 1009.1 |
| 20260509212951 | 52 | 167 | 5.0 | 10.0 | 0.00 | 0.00 | 0.00 | 1 | 1009.1 |
| 20260509212913 | 52 | 163 | 5.0 | 10.0 | 0.00 | 0.00 | 0.00 | 1 | 1009.1 |
| 20260509212741 | 52 | 167 | 6.0 | 10.0 | 0.00 | 0.00 | 0.00 | 1 | 1009.2 |
| 20260509212645 | 52 | 151 | 7.0 | 10.0 | 0.00 | 0.00 | 0.00 | 1 | 1009.2 |
| 20260509212528 | 52 | 164 | 6.0 | 12.0 | 0.00 | 0.00 | 0.00 | 1 | 1009.2 |
| 20260509212451 | 52 | 171 | 6.0 | 11.0 | 0.00 | 0.00 | 0.00 | 1 | 1009.2 |
| 20260509212356 | 52 | 173 | 6.0 | 11.0 | 0.00 | 0.00 | 0.00 | 1 | 1009.1 |
| 20260509212318 | 52 | 158 | 6.0 | 11.0 | 0.00 | 0.00 | 0.00 | 1 | 1009.2 |
| 20260509212130 | 52 | 204 | 7.0 | 11.0 | 0.00 | 0.00 | 0.00 | 1 | 1009.2 |
| 20260509212023 | 52 | 172 | 6.0 | 12.0 | 0.00 | 0.00 | 0.00 | 1 | 1009.2 |
| 20260509211948 | 52 | 140 | 5.0 | 8.0 | 0.00 | 0.00 | 0.00 | 1 | 1009.2 |
| 20260509211816 | 52 | 163 | 4.0 | 7.0 | 0.00 | 0.00 | 0.00 | 1 | 1009.2 |
| 20260509211741 | 52 | 236 | 4.0 | 7.0 | 0.00 | 0.00 | 0.00 | 1 | 1009.2 |
| 20260509211644 | 52 | 233 | 4.0 | 7.0 | 0.00 | 0.00 | 0.00 | 1 | 1009.2 |
| 20260509211527 | 52 | 188 | 4.0 | 8.0 | 0.00 | 0.00 | 0.00 | 1 | 1009.2 |
| 20260509211450 | 52 | 191 | 3.0 | 8.0 | 0.00 | 0.00 | 0.00 | 1 | 1009.2 |
| 20260509211324 | 52 | 174 | 4.0 | 8.0 | 0.00 | 0.00 | 0.00 | 1 | 1009.2 |
| 20260509211227 | 52 | 169 | 5.0 | 9.0 | 0.00 | 0.00 | 0.00 | 1 | 1009.2 |
| 20260509211154 | 52 | 167 | 5.0 | 9.0 | 0.00 | 0.00 | 0.00 | 1 | 1009.2 |
| 20260509211118 | 52 | 161 | 4.0 | 9.0 | 0.00 | 0.00 | 0.00 | 1 | 1009.2 |
| 20260509210922 | 52 | 163 | 4.0 | 9.0 | 0.00 | 0.00 | 0.00 | 1 | 1009.2 |
| 20260509210845 | 52 | 184 | 5.0 | 9.0 | 0.00 | 0.00 | 0.00 | 1 | 1009.2 |
| 20260509210728 | 52 | 180 | 4.0 | 9.0 | 0.00 | 0.00 | 0.00 | 1 | 1009.2 |
| 20260509210652 | 52 | 182 | 3.0 | 9.0 | 0.00 | 0.00 | 0.00 | 1 | 1009.2 |
| 20260509210606 | 52 | 195 | 5.0 | 9.0 | 0.00 | 0.00 | 0.00 | 1 | 1009.2 |
| 20260509210417 | 52 | 152 | 5.0 | 9.0 | 0.00 | 0.00 | 0.00 | 1 | 1009.1 |
| 20260509210339 | 52 | 154 | 5.0 | 8.0 | 0.00 | 0.00 | 0.00 | 1 | 1009.1 |
| 20260509210210 | 52 | 179 | 6.0 | 8.0 | 0.00 | 0.00 | 0.00 | 1 | 1009.1 |
| 20260509210029 | 52 | 181 | 5.0 | 8.0 | 0.00 | 0.00 | 0.00 | 1 | 1009.2 |
| 20260509205924 | 52 | 184 | 3.0 | 9.0 | 0.00 | 0.00 | 0.00 | 1 | 1009.2 |
| 20260509205848 | 52 | 200 | 3.0 | 9.0 | 0.00 | 0.00 | 0.00 | 1 | 1009.2 |
| 20260509205731 | 52 | 178 | 3.0 | 9.0 | 0.00 | 0.00 | 0.00 | 1 | 1009.2 |
| 20260509205654 | 52 | 197 | 4.0 | 9.0 | 0.00 | 0.00 | 0.00 | 1 | 1009.2 |
| 20260509205436 | 52 | 197 | 5.0 | 9.0 | 0.00 | 0.00 | 0.00 | 1 | 1009.2 |
| 20260509205400 | 52 | 192 | 4.0 | 6.0 | 0.00 | 0.00 | 0.00 | 1 | 1009.2 |
| 20260509205307 | 52 | 180 | 2.0 | 7.0 | 0.00 | 0.00 | 0.00 | 1 | 1009.2 |
| 20260509205226 | 52 | 127 | 2.0 | 7.0 | 0.00 | 0.00 | 0.00 | 1 | 1009.2 |
| 20260509205042 | 52 | 159 | 3.0 | 7.0 | 0.00 | 0.00 | 0.00 | 1 | 1009.2 |
| 20260509204936 | 52 | 150 | 4.0 | 7.0 | 0.00 | 0.00 | 0.00 | 1 | 1009.3 |
| 20260509204900 | 52 | 135 | 4.0 | 7.0 | 0.00 | 0.00 | 0.00 | 1 | 1009.3 |
| 20260509204805 | 52 | 138 | 3.0 | 7.0 | 0.00 | 0.00 | 0.00 | 1 | 1009.2 |
| 20260509204726 | 52 | 196 | 3.0 | 7.0 | 0.00 | 0.00 | 0.00 | 1 | 1009.3 |
| 20260509204548 | 52 | 150 | 4.0 | 7.0 | 0.00 | 0.00 | 0.00 | 1 | 1009.3 |
| 20260509204441 | 52 | 164 | 3.0 | 6.0 | 0.00 | 0.00 | 0.00 | 1 | 1009.3 |
| 20260509204313 | 52 | 198 | 4.0 | 6.0 | 0.00 | 0.00 | 0.00 | 1 | 1009.3 |
| 20260509204235 | 51 | 155 | 4.0 | 6.0 | 0.00 | 0.00 | 0.00 | 1 | 1009.3 |
| 20260509204059 | 51 | 181 | 4.0 | 6.0 | 0.00 | 0.00 | 0.00 | 1 | 1009.3 |
| 20260509204021 | 51 | 178 | 3.0 | 6.0 | 0.00 | 0.00 | 0.00 | 1 | 1009.3 |
| 20260509203837 | 51 | 171 | 3.0 | 7.0 | 0.00 | 0.00 | 0.00 | 1 | 1009.3 |
| 20260509203731 | 51 | 172 | 4.0 | 7.0 | 0.00 | 0.00 | 0.00 | 1 | 1009.4 |
| 20260509203655 | 51 | 184 | 4.0 | 7.0 | 0.00 | 0.00 | 0.00 | 1 | 1009.4 |
| 20260509203600 | 51 | 163 | 4.0 | 7.0 | 0.00 | 0.00 | 0.00 | 1 | 1009.4 |
| 20260509203523 | 51 | 154 | 4.0 | 7.0 | 0.00 | 0.00 | 0.00 | 1 | 1009.4 |
| 20260509203328 | 51 | 160 | 3.0 | 7.0 | 0.00 | 0.00 | 0.00 | 1 | 1009.4 |
| 20260509203230 | 51 | 185 | 3.0 | 7.0 | 0.00 | 0.00 | 0.00 | 1 | 1009.5 |
| 20260509203133 | 51 | 161 | 4.0 | 7.0 | 0.00 | 0.00 | 0.00 | 1 | 1009.4 |
| 20260509203055 | 51 | 194 | 5.0 | 7.0 | 0.00 | 0.00 | 0.00 | 1 | 1009.4 |
| 20260509203021 | 51 | 181 | 5.0 | 8.0 | 0.00 | 0.00 | 0.00 | 1 | 1009.5 |
| 20260509202825 | 51 | 188 | 4.0 | 8.0 | 0.00 | 0.00 | 0.00 | 1 | 1009.5 |
| 20260509202727 | 51 | 174 | 4.0 | 8.0 | 0.00 | 0.00 | 0.00 | 1 | 1009.6 |
| 20260509202631 | 51 | 149 | 5.0 | 9.0 | 0.00 | 0.00 | 0.00 | 1 | 1009.5 |
| 20260509202553 | 51 | 196 | 4.0 | 8.0 | 0.00 | 0.00 | 0.00 | 1 | 1009.6 |
| 20260509202336 | 51 | 172 | 5.0 | 8.0 | 0.00 | 0.00 | 0.00 | 1 | 1009.6 |
| 20260509202239 | 51 | 175 | 4.0 | 8.0 | 0.00 | 0.00 | 0.00 | 1 | 1009.6 |
| 20260509202141 | 51 | 175 | 5.0 | 8.0 | 0.00 | 0.00 | 0.00 | 1 | 1009.5 |
| 20260509202049 | 51 | 146 | 5.0 | 8.0 | 0.00 | 0.00 | 0.00 | 1 | 1009.5 |
| 20260509201952 | 51 | 180 | 4.0 | 8.0 | 0.00 | 0.00 | 0.00 | 1 | 1009.6 |
| 20260509201854 | 51 | 202 | 4.0 | 8.0 | 0.00 | 0.00 | 0.00 | 1 | 1009.6 |
| 20260509201816 | 51 | 210 | 4.0 | 8.0 | 0.00 | 0.00 | 0.00 | 1 | 1009.6 |
| 20260509201638 | 51 | 184 | 5.0 | 8.0 | 0.00 | 0.00 | 0.00 | 1 | 1009.6 |
| 20260509201541 | 51 | 167 | 6.0 | 8.0 | 0.00 | 0.00 | 0.00 | 1 | 1009.6 |
| 20260509201427 | 51 | 160 | 5.0 | 8.0 | 0.00 | 0.00 | 0.00 | 1 | 1009.6 |
| 20260509201348 | 51 | 188 | 4.0 | 8.0 | 0.00 | 0.00 | 0.00 | 1 | 1009.6 |
| 20260509201220 | 51 | 212 | 4.0 | 8.0 | 0.00 | 0.00 | 0.00 | 1 | 1009.6 |
| 20260509201136 | 51 | 153 | 4.0 | 8.0 | 0.00 | 0.00 | 0.00 | 1 | 1009.6 |
| 20260509201006 | 51 | 191 | 4.0 | 8.0 | 0.00 | 0.00 | 0.00 | 1 | 1009.6 |
| 20260509200931 | 51 | 178 | 4.0 | 8.0 | 0.00 | 0.00 | 0.00 | 1 | 1009.6 |
| 20260509200734 | 52 | 171 | 5.0 | 8.0 | 0.00 | 0.00 | 0.00 | 1 | 1009.6 |
| 20260509200656 | 52 | 180 | 5.0 | 8.0 | 0.00 | 0.00 | 0.00 | 1 | 1009.6 |
| 20260509200600 | 52 | 191 | 4.0 | 8.0 | 0.00 | 0.00 | 0.00 | 1 | 1009.6 |
| 20260509200523 | 52 | 173 | 5.0 | 8.0 | 0.00 | 0.00 | 0.00 | 1 | 1009.6 |
| 20260509200327 | 52 | 228 | 4.0 | 8.0 | 0.00 | 0.00 | 0.00 | 1 | 1009.6 |
| 20260509200229 | 52 | 152 | 5.0 | 7.0 | 0.00 | 0.00 | 0.00 | 1 | 1009.6 |
| 20260509200133 | 52 | 185 | 5.0 | 7.0 | 0.00 | 0.00 | 0.00 | 1 | 1009.6 |
| 20260509200034 | 52 | 162 | 5.0 | 7.0 | 0.00 | 0.00 | 0.00 | 1 | 1009.6 |
| 20260509200002 | 52 | 167 | 4.0 | 7.0 | 0.00 | 0.00 | 0.00 | 1 | 1009.6 |
| 20260509195906 | 52 | 152 | 4.0 | 7.0 | 0.00 | 0.00 | 0.00 | 1 | 1009.6 |
| 20260509195808 | 52 | 182 | 4.0 | 7.0 | 0.00 | 0.00 | 0.00 | 1 | 1009.5 |
| 20260509195730 | 52 | 201 | 4.0 | 7.0 | 0.00 | 0.00 | 0.00 | 1 | 1009.6 |
| 20260509195613 | 52 | 207 | 4.0 | 7.0 | 0.00 | 0.00 | 0.00 | 1 | 1009.6 |
| 20260509195535 | 52 | 196 | 5.0 | 7.0 | 0.00 | 0.00 | 0.00 | 1 | 1009.6 |
| 20260509195345 | 52 | 166 | 4.0 | 7.0 | 0.00 | 0.00 | 0.00 | 1 | 1009.6 |
| 20260509195240 | 52 | 172 | 3.0 | 7.0 | 0.00 | 0.00 | 0.00 | 1 | 1009.6 |
| 20260509195109 | 52 | 159 | 4.0 | 7.0 | 0.00 | 0.00 | 0.00 | 1 | 1009.6 |
| 20260509195031 | 52 | 174 | 5.0 | 7.0 | 0.00 | 0.00 | 0.00 | 1 | 1009.6 |
| 20260509194835 | 52 | 191 | 4.0 | 6.0 | 0.00 | 0.00 | 0.00 | 1 | 1009.6 |
| 20260509194740 | 52 | 197 | 2.0 | 6.0 | 0.00 | 0.00 | 0.00 | 1 | 1009.6 |
| 20260509194646 | 52 | 188 | 3.0 | 6.0 | 0.00 | 0.00 | 0.00 | 1 | 1009.6 |
| 20260509194607 | 52 | 190 | 3.0 | 8.0 | 0.00 | 0.00 | 0.00 | 1 | 1009.6 |
| 20260509194439 | 52 | 221 | 4.0 | 9.0 | 0.00 | 0.00 | 0.00 | 1 | 1009.6 |
| 20260509194335 | 52 | 190 | 4.0 | 9.0 | 0.00 | 0.00 | 0.00 | 1 | 1009.6 |
| 20260509194205 | 52 | 185 | 4.0 | 9.0 | 0.00 | 0.00 | 0.00 | 1 | 1009.6 |
| 20260509194128 | 52 | 159 | 4.0 | 9.0 | 0.00 | 0.00 | 0.00 | 1 | 1009.7 |
| 20260509193931 | 52 | 155 | 4.0 | 9.0 | 0.00 | 0.00 | 0.00 | 1 | 1009.7 |
| 20260509193835 | 52 | 132 | 5.0 | 9.0 | 0.00 | 0.00 | 0.00 | 1 | 1009.7 |
| 20260509193737 | 52 | 178 | 6.0 | 9.0 | 0.00 | 0.00 | 0.00 | 1 | 1009.7 |
| 20260509193701 | 52 | 176 | 6.0 | 10.0 | 0.00 | 0.00 | 0.00 | 1 | 1009.7 |
| 20260509193628 | 52 | 180 | 5.0 | 10.0 | 0.00 | 0.00 | 0.00 | 1 | 1009.6 |
| 20260509193432 | 52 | 178 | 5.0 | 9.0 | 0.00 | 0.00 | 0.00 | 1 | 1009.7 |
| 20260509193356 | 52 | 163 | 5.0 | 10.0 | 0.00 | 0.00 | 0.00 | 1 | 1009.7 |
| 20260509193301 | 52 | 150 | 4.0 | 10.0 | 0.00 | 0.00 | 0.00 | 1 | 1009.7 |
| 20260509193141 | 52 | 148 | 5.0 | 10.0 | 0.00 | 0.00 | 0.00 | 1 | 1009.7 |
| 20260509193047 | 52 | 167 | 6.0 | 11.0 | 0.00 | 0.00 | 0.00 | 1 | 1009.7 |
| 20260509193008 | 52 | 175 | 6.0 | 11.0 | 0.00 | 0.00 | 0.00 | 1 | 1009.7 |
| 20260509192820 | 52 | 121 | 6.0 | 11.0 | 0.00 | 0.00 | 0.00 | 1 | 1009.7 |
| 20260509192730 | 52 | 164 | 7.0 | 11.0 | 0.00 | 0.00 | 0.00 | 1 | 1009.7 |
| 20260509192614 | 52 | 161 | 6.0 | 11.0 | 0.00 | 0.00 | 0.00 | 1 | 1009.8 |
| 20260509192536 | 52 | 175 | 6.0 | 11.0 | 0.00 | 0.00 | 0.00 | 1 | 1009.8 |
| 20260509192335 | 52 | 182 | 7.0 | 11.0 | 0.00 | 0.00 | 0.00 | 1 | 1009.8 |
| 20260509192237 | 52 | 222 | 7.0 | 11.0 | 0.00 | 0.00 | 0.00 | 1 | 1009.8 |
| 20260509192140 | 52 | 194 | 7.0 | 14.0 | 0.00 | 0.00 | 0.00 | 1 | 1009.8 |
| 20260509192043 | 52 | 166 | 8.0 | 14.0 | 0.00 | 0.00 | 0.00 | 1 | 1009.8 |
| 20260509191959 | 52 | 189 | 8.0 | 14.0 | 0.00 | 0.00 | 0.00 | 1 | 1009.9 |
| 20260509191717 | 53 | 202 | 5.0 | 10.0 | 0.00 | 0.00 | 0.00 | 1 | 1009.8 |
| 20260509191639 | 53 | 194 | 6.0 | 10.0 | 0.00 | 0.00 | 0.00 | 1 | 1009.9 |
| 20260509191510 | 53 | 151 | 6.0 | 10.0 | 0.00 | 0.00 | 0.00 | 1 | 1009.9 |
| 20260509191426 | 53 | 121 | 5.0 | 10.0 | 0.00 | 0.00 | 0.00 | 1 | 1009.9 |
| 20260509191309 | 53 | 163 | 6.0 | 10.0 | 0.00 | 0.00 | 0.00 | 1 | 1009.8 |
| 20260509191214 | 53 | 163 | 7.0 | 10.0 | 0.00 | 0.00 | 0.00 | 1 | 1009.9 |
| 20260509191028 | 53 | 115 | 6.0 | 10.0 | 0.00 | 0.00 | 0.00 | 1 | 1009.9 |
| 20260509190952 | 53 | 185 | 6.0 | 10.0 | 0.00 | 0.00 | 0.00 | 2 | 1009.9 |
| 20260509190855 | 53 | 207 | 6.0 | 10.0 | 0.00 | 0.00 | 0.00 | 3 | 1010.0 |
| 20260509190758 | 53 | 200 | 6.0 | 10.0 | 0.00 | 0.00 | 0.00 | 2 | 1010.0 |
| 20260509190721 | 53 | 163 | 6.0 | 9.0 | 0.00 | 0.00 | 0.00 | 2 | 1010.0 |
| 20260509190525 | 53 | 197 | 7.0 | 9.0 | 0.00 | 0.00 | 0.00 | 6 | 1009.9 |
| 20260509190428 | 53 | 190 | 7.0 | 9.0 | 0.00 | 0.00 | 0.00 | 6 | 1009.9 |
| 20260509190331 | 53 | 167 | 6.0 | 9.0 | 0.00 | 0.00 | 0.00 | 7 | 1009.9 |
| 20260509190253 | 53 | 180 | 5.0 | 9.0 | 0.00 | 0.00 | 0.00 | 6 | 1009.9 |
| 20260509190127 | 53 | 176 | 6.0 | 9.0 | 0.00 | 0.00 | 0.00 | 9 | 1009.9 |
| 20260509190023 | 53 | 167 | 6.0 | 9.0 | 0.00 | 0.00 | 0.00 | 6 | 1009.9 |
| 20260509185833 | 53 | 178 | 4.0 | 9.0 | 0.00 | 0.00 | 0.00 | 5 | 1009.9 |
| 20260509185750 | 53 | 194 | 4.0 | 9.0 | 0.00 | 0.00 | 0.00 | 5 | 1009.9 |
| 20260509185721 | 53 | 202 | 3.0 | 9.0 | 0.00 | 0.00 | 0.00 | 2 | 1009.9 |
| 20260509185534 | 53 | 158 | 4.0 | 9.0 | 0.00 | 0.00 | 0.00 | 7 | 1009.9 |
| 20260509185428 | 53 | 161 | 4.0 | 9.0 | 0.00 | 0.00 | 0.00 | 9 | 1009.9 |
| 20260509185352 | 53 | 146 | 5.0 | 9.0 | 0.00 | 0.00 | 0.00 | 9 | 1009.9 |
| 20260509185236 | 53 | 197 | 6.0 | 10.0 | 0.00 | 0.00 | 0.00 | 9 | 1010.0 |
| 20260509185202 | 53 | 166 | 4.0 | 8.0 | 0.00 | 0.00 | 0.00 | 5 | 1010.1 |
| 20260509185023 | 53 | 181 | 3.0 | 7.0 | 0.00 | 0.00 | 0.00 | 6 | 1010.1 |
| 20260509184946 | 53 | 179 | 3.0 | 7.0 | 0.00 | 0.00 | 0.00 | 7 | 1010.1 |
| 20260509184824 | 53 | 196 | 3.0 | 7.0 | 0.00 | 0.00 | 0.00 | 5 | 1010.1 |
| 20260509184727 | 53 | 158 | 3.0 | 7.0 | 0.00 | 0.00 | 0.00 | 4 | 1010.1 |
| 20260509184650 | 53 | 153 | 3.0 | 7.0 | 0.00 | 0.00 | 0.00 | 4 | 1010.1 |
| 20260509184614 | 53 | 153 | 4.0 | 7.0 | 0.00 | 0.00 | 0.00 | 6 | 1010.1 |
| 20260509184436 | 53 | 211 | 4.0 | 7.0 | 0.00 | 0.00 | 0.00 | 8 | 1010.1 |
| 20260509184359 | 53 | 156 | 4.0 | 7.0 | 0.00 | 0.00 | 0.00 | 6 | 1010.1 |
| 20260509184325 | 53 | 161 | 3.0 | 7.0 | 0.00 | 0.00 | 0.00 | 6 | 1010.1 |
| 20260509184207 | 53 | 225 | 2.0 | 9.0 | 0.00 | 0.00 | 0.00 | 7 | 1010.1 |
| 20260509184128 | 53 | 192 | 3.0 | 9.0 | 0.00 | 0.00 | 0.00 | 7 | 1010.1 |
| 20260509183932 | 53 | 152 | 3.0 | 10.0 | 0.00 | 0.00 | 0.00 | 6 | 1010.1 |
| 20260509183835 | 53 | 164 | 3.0 | 10.0 | 0.00 | 0.00 | 0.00 | 6 | 1010.1 |
| 20260509183738 | 53 | 183 | 4.0 | 10.0 | 0.00 | 0.00 | 0.00 | 6 | 1010.1 |
| 20260509183701 | 53 | 182 | 4.0 | 10.0 | 0.00 | 0.00 | 0.00 | 5 | 1010.1 |
| 20260509183624 | 53 | 172 | 4.0 | 10.0 | 0.00 | 0.00 | 0.00 | 7 | 1010.2 |
| 20260509183426 | 53 | 198 | 5.0 | 10.0 | 0.00 | 0.00 | 0.00 | 4 | 1010.2 |
| 20260509183350 | 53 | 194 | 6.0 | 10.0 | 0.00 | 0.00 | 0.00 | 3 | 1010.2 |
| 20260509183237 | 53 | 217 | 6.0 | 10.0 | 0.00 | 0.00 | 0.00 | 2 | 1010.2 |
| 20260509183200 | 53 | 193 | 5.0 | 10.0 | 0.00 | 0.00 | 0.00 | 2 | 1010.2 |
| 20260509183115 | 53 | 230 | 4.0 | 8.0 | 0.00 | 0.00 | 0.00 | 1 | 1010.2 |
| 20260509182925 | 52 | 200 | 3.0 | 7.0 | 0.00 | 0.00 | 0.00 | 1 | 1010.3 |
| 20260509182826 | 52 | 190 | 3.0 | 7.0 | 0.00 | 0.00 | 0.00 | 1 | 1010.2 |
| 20260509182629 | 52 | 188 | 3.0 | 7.0 | 0.00 | 0.00 | 0.00 | 1 | 1010.2 |
| 20260509182533 | 52 | 173 | 3.0 | 7.0 | 0.00 | 0.00 | 0.00 | 1 | 1010.2 |
| 20260509182436 | 52 | 231 | 3.0 | 7.0 | 0.00 | 0.00 | 0.00 | 1 | 1010.3 |
| 20260509182359 | 52 | 155 | 3.0 | 7.0 | 0.00 | 0.00 | 0.00 | 1 | 1010.3 |
| 20260509182236 | 52 | 143 | 4.0 | 7.0 | 0.00 | 0.00 | 0.00 | 1 | 1010.3 |
| 20260509182137 | 52 | 191 | 5.0 | 7.0 | 0.00 | 0.00 | 0.00 | 1 | 1010.3 |
| 20260509182037 | 52 | 181 | 6.0 | 8.0 | 0.00 | 0.00 | 0.00 | 1 | 1010.3 |
| 20260509182001 | 52 | 170 | 5.0 | 8.0 | 0.00 | 0.00 | 0.00 | 1 | 1010.3 |
| 20260509181823 | 52 | 190 | 4.0 | 8.0 | 0.00 | 0.00 | 0.00 | 1 | 1010.4 |
| 20260509181746 | 52 | 150 | 4.0 | 7.0 | 0.00 | 0.00 | 0.00 | 1 | 1010.4 |
| 20260509181709 | 52 | 149 | 4.0 | 7.0 | 0.00 | 0.00 | 0.00 | 1 | 1010.3 |
| 20260509181623 | 52 | 163 | 5.0 | 7.0 | 0.00 | 0.00 | 0.00 | 1 | 1010.4 |
| 20260509181526 | 52 | 174 | 5.0 | 7.0 | 0.00 | 0.00 | 0.00 | 1 | 1010.4 |
| 20260509181337 | 52 | 157 | 5.0 | 8.0 | 0.00 | 0.00 | 0.00 | 1 | 1010.4 |
| 20260509181235 | 52 | 206 | 4.0 | 7.0 | 0.00 | 0.00 | 0.00 | 1 | 1010.4 |
| 20260509181159 | 52 | 209 | 4.0 | 7.0 | 0.00 | 0.00 | 0.00 | 1 | 1010.4 |
| 20260509181102 | 52 | 201 | 3.0 | 8.0 | 0.00 | 0.00 | 0.00 | 1 | 1010.4 |
| 20260509181004 | 52 | 193 | 4.0 | 8.0 | 0.00 | 0.00 | 0.00 | 1 | 1010.4 |
| 20260509180924 | 52 | 217 | 3.0 | 8.0 | 0.00 | 0.00 | 0.00 | 1 | 1010.4 |
| 20260509180728 | 52 | 217 | 4.0 | 8.0 | 0.00 | 0.00 | 0.00 | 1 | 1010.4 |
| 20260509180649 | 52 | 194 | 5.0 | 8.0 | 0.00 | 0.00 | 0.00 | 1 | 1010.4 |
| 20260509180533 | 52 | 193 | 4.0 | 8.0 | 0.00 | 0.00 | 0.00 | 1 | 1010.4 |
| 20260509180456 | 52 | 169 | 4.0 | 8.0 | 0.00 | 0.00 | 0.00 | 1 | 1010.4 |
| 20260509180324 | 52 | 190 | 5.0 | 8.0 | 0.00 | 0.00 | 0.00 | 1 | 1010.4 |
| 20260509180246 | 52 | 172 | 5.0 | 8.0 | 0.00 | 0.00 | 0.00 | 1 | 1010.4 |
| 20260509180117 | 52 | 227 | 4.0 | 7.0 | 0.00 | 0.00 | 0.00 | 1 | 1010.4 |
| 20260509180027 | 52 | 189 | 4.0 | 7.0 | 0.00 | 0.00 | 0.00 | 1 | 1010.3 |
| 20260509175838 | 51 | 175 | 5.0 | 8.0 | 0.00 | 0.00 | 0.00 | 1 | 1010.3 |
| 20260509175734 | 51 | 159 | 5.0 | 8.0 | 0.00 | 0.00 | 0.00 | 1 | 1010.3 |
| 20260509175618 | 51 | 148 | 5.0 | 8.0 | 0.00 | 0.00 | 0.00 | 1 | 1010.3 |
| 20260509175550 | 51 | 155 | 5.0 | 8.0 | 0.00 | 0.00 | 0.00 | 1 | 1010.3 |
| 20260509175451 | 51 | 171 | 5.0 | 8.0 | 0.00 | 0.00 | 0.00 | 1 | 1010.3 |
| 20260509175355 | 51 | 194 | 5.0 | 8.0 | 0.00 | 0.00 | 0.00 | 1 | 1010.3 |
| 20260509175300 | 51 | 178 | 5.0 | 8.0 | 0.00 | 0.00 | 0.00 | 1 | 1010.3 |
| 20260509175131 | 51 | 130 | 5.0 | 8.0 | 0.00 | 0.00 | 0.00 | 1 | 1010.4 |
| 20260509175027 | 51 | 165 | 5.0 | 8.0 | 0.00 | 0.00 | 0.00 | 1 | 1010.4 |
| 20260509174838 | 51 | 165 | 4.0 | 7.0 | 0.00 | 0.00 | 0.00 | 1 | 1010.5 |
| 20260509174712 | 51 | 166 | 4.0 | 7.0 | 0.00 | 0.00 | 0.00 | 1 | 1010.5 |
| 20260509174627 | 51 | 180 | 5.0 | 7.0 | 0.00 | 0.00 | 0.00 | 1 | 1010.5 |
| 20260509174529 | 51 | 156 | 5.0 | 7.0 | 0.00 | 0.00 | 0.00 | 1 | 1010.5 |
| 20260509174454 | 51 | 161 | 4.0 | 7.0 | 0.00 | 0.00 | 0.00 | 1 | 1010.5 |
| 20260509174355 | 51 | 196 | 3.0 | 7.0 | 0.00 | 0.00 | 0.00 | 1 | 1010.5 |
| 20260509174321 | 51 | 189 | 3.0 | 7.0 | 0.00 | 0.00 | 0.00 | 1 | 1010.5 |
| 20260509174124 | 51 | 144 | 3.0 | 9.0 | 0.00 | 0.00 | 0.00 | 1 | 1010.5 |
| 20260509174026 | 51 | 177 | 4.0 | 9.0 | 0.00 | 0.00 | 0.00 | 1 | 1010.6 |
| 20260509173930 | 51 | 180 | 4.0 | 9.0 | 0.00 | 0.00 | 0.00 | 1 | 1010.6 |
| 20260509173830 | 51 | 176 | 5.0 | 9.0 | 0.00 | 0.00 | 0.00 | 1 | 1010.6 |
| 20260509173634 | 51 | 174 | 5.0 | 9.0 | 0.00 | 0.00 | 0.00 | 1 | 1010.7 |
| 20260509173537 | 51 | 169 | 5.0 | 9.0 | 0.00 | 0.00 | 0.00 | 1 | 1010.7 |
| 20260509173440 | 51 | 186 | 5.0 | 9.0 | 0.00 | 0.00 | 0.00 | 1 | 1010.7 |
| 20260509173402 | 51 | 167 | 6.0 | 9.0 | 0.00 | 0.00 | 0.00 | 1 | 1010.7 |
| 20260509173328 | 51 | 202 | 6.0 | 9.0 | 0.00 | 0.00 | 0.00 | 1 | 1010.7 |
| 20260509173133 | 51 | 188 | 4.0 | 10.0 | 0.00 | 0.00 | 0.00 | 1 | 1010.7 |
| 20260509173035 | 51 | 141 | 4.0 | 10.0 | 0.00 | 0.00 | 0.00 | 3 | 1010.7 |
| 20260509172938 | 51 | 167 | 6.0 | 10.0 | 0.00 | 0.00 | 0.00 | 5 | 1010.7 |
| 20260509172842 | 51 | 184 | 6.0 | 11.0 | 0.00 | 0.00 | 0.00 | 5 | 1010.7 |
| 20260509172735 | 51 | 129 | 6.0 | 10.0 | 0.00 | 0.00 | 0.00 | 6 | 1010.7 |
| 20260509172659 | 51 | 160 | 6.0 | 10.0 | 0.00 | 0.00 | 0.00 | 7 | 1010.7 |
| 20260509172528 | 51 | 182 | 6.0 | 11.0 | 0.00 | 0.00 | 0.00 | 8 | 1010.8 |
| 20260509172444 | 51 | 184 | 6.0 | 11.0 | 0.00 | 0.00 | 0.00 | 10 | 1010.8 |
| 20260509172314 | 51 | 148 | 5.0 | 11.0 | 0.00 | 0.00 | 0.00 | 9 | 1010.9 |
| 20260509172215 | 51 | 191 | 4.0 | 11.0 | 0.00 | 0.00 | 0.00 | 10 | 1010.8 |
| 20260509172119 | 51 | 198 | 4.0 | 11.0 | 0.00 | 0.00 | 0.00 | 12 | 1010.9 |
| 20260509172041 | 51 | 157 | 4.0 | 11.0 | 0.00 | 0.00 | 0.00 | 15 | 1010.8 |
| 20260509171820 | 51 | 161 | 5.0 | 13.0 | 0.00 | 0.00 | 0.00 | 15 | 1010.8 |
| 20260509171730 | 51 | 195 | 6.0 | 13.0 | 0.00 | 0.00 | 0.00 | 17 | 1010.9 |
| 20260509171632 | 51 | 189 | 6.0 | 13.0 | 0.00 | 0.00 | 0.00 | 17 | 1011.0 |
| 20260509171550 | 51 | 188 | 6.0 | 13.0 | 0.00 | 0.00 | 0.00 | 19 | 1010.9 |
| 20260509171358 | 51 | 153 | 6.0 | 13.0 | 0.00 | 0.00 | 0.00 | 22 | 1011.0 |
| 20260509171305 | 51 | 194 | 6.0 | 13.0 | 0.00 | 0.00 | 0.00 | 22 | 1011.0 |
| 20260509171209 | 51 | 156 | 5.0 | 13.0 | 0.00 | 0.00 | 0.00 | 24 | 1011.0 |
| 20260509171129 | 51 | 206 | 7.0 | 13.0 | 0.00 | 0.00 | 0.00 | 25 | 1011.0 |